GFSGL_sfc_temp_000.txt.gz
Temp
42 42 41 40 40 40 39 38 38 40 41 41 42 42 39 39 38 36 35 34 34 33 32 32 32 31 30 30 30 30 29 29 25 30 34 37 37 39 42 43 43 41 40
41 41 40 40 39 38 38 38 38 39 39 40 39 39 38 37 36 34 34 33 32 32 32 31 31 35 30 29 28 28 28 29 27 26 31 33 35 37 38 39 42 44 40
40 39 38 38 37 37 37 37 38 37 38 38 38 37 36 36 35 34 33 33 31 31 31 30 30 29 28 27 28 28 28 31 30 29 28 32 33 35 36 38 38 38 42
39 38 38 37 37 36 36 36 36 37 37 36 36 36 36 36 35 33 32 31 31 31 31 30 29 29 28 28 28 28 29 27 28 29 29 29 31 34 32 32 33 35 35
39 38 38 37 37 37 36 36 36 36 39 36 35 34 34 35 34 32 32 31 30 29 30 30 31 32 34 33 31 28 28 27 27 27 28 29 29 28 29 31 30 31 33
38 38 38 38 37 36 35 35 35 38 34 33 33 33 33 35 36 37 35 30 30 29 29 29 29 31 31 32 31 31 31 27 26 25 26 26 28 28 28 29 28 27 28
38 38 38 37 36 35 35 34 34 33 33 33 32 32 29 30 35 35 32 28 27 26 28 26 27 30 28 28 28 30 30 30 30 28 26 27 28 29 30 28 27 27 27
37 37 37 36 35 34 33 33 33 33 32 30 29 29 29 32 34 32 31 26 26 26 26 25 25 25 26 28 27 27 28 29 30 30 29 29 29 30 30 30 29 28 28
37 36 36 35 34 33 33 32 32 32 31 30 31 29 28 27 33 32 30 24 24 24 26 26 26 25 28 30 27 25 26 28 32 32 33 32 32 32 31 28 25 25 24
36 36 36 35 33 32 32 31 31 30 31 31 29 27 30 25 30 31 29 21 17 22 24 26 26 27 29 30 26 24 22 26 27 28 28 29 29 29 31 30 28 25 26
36 35 35 34 33 32 31 30 30 28 28 25 26 25 26 27 25 30 30 20 20 22 22 22 24 26 29 29 29 24 25 26 25 25 26 26 27 27 27 28 29 27 24
35 34 33 33 33 34 30 29 28 26 25 22 15 18 21 22 27 27 29 28 28 14 20 22 21 28 27 27 26 28 27 24 23 22 22 23 24 25 28 28 28 28 29
32 32 33 33 33 32 29 27 26 24 20 20 23 16 19 22 20 26 27 28 27 16 19 22 25 25 24 24 24 25 23 21 21 20 21 22 24 27 28 29 30 30 30
31 31 31 31 32 31 31 30 27 20 19 23 20 20 16 17 16 17 19 15 19 21 17 16 17 21 17 19 20 19 19 20 20 19 20 22 25 26 27 28 28 28 27
31 31 30 29 29 31 30 29 28 27 25 21 20 19 8 5 15 21 22 16 11 16 9 7 11 15 15 17 17 17 16 17 17 18 19 19 21 24 26 28 28 28 27
31 34 30 31 32 30 30 30 33 33 32 32 31 21 13 23 28 29 30 29 28 25 11 4 0 2 10 15 15 15 13 13 14 16 17 18 18 20 23 25 26 26 26
32 33 33 31 31 28 26 25 22 25 32 33 33 33 30 24 28 30 30 29 26 21 8 5 -1 -1 4 15 15 15 13 12 12 13 14 15 16 19 20 22 23 23 23
32 31 30 29 27 28 26 25 23 17 16 18 25 30 31 31 31 31 31 25 13 12 9 7 5 5 8 12 14 13 13 11 9 9 11 12 13 16 17 19 20 19 21
32 31 29 27 18 20 21 20 21 20 20 18 15 19 20 31 31 31 29 12 10 9 10 11 6 7 9 10 4 5 7 8 8 5 7 8 9 13 16 17 16 14 17
33 30 28 27 25 19 18 22 22 20 21 19 15 16 13 17 10 9 1 0 2 9 9 10 11 9 7 6 -0 -3 3 5 9 9 7 7 7 9 12 12 13 13 15
33 31 27 22 26 28 25 20 20 18 22 20 17 12 13 16 17 12 10 7 8 10 10 10 9 5 2 1 6 2 2 2 5 9 9 10 7 9 11 12 12 14 15
31 30 28 27 27 26 26 23 19 17 18 20 21 12 13 7 13 13 12 13 12 12 12 10 11 10 9 9 7 -1 -1 -2 -0 3 6 8 10 11 11 11 10 11 13
30 29 28 26 26 22 15 18 18 15 17 19 20 19 15 17 14 14 19 16 12 10 9 9 8 7 6 4 2 5 5 6 5 1 1 4 9 10 10 10 10 11 10
31 31 29 25 24 19 16 16 17 16 18 20 20 20 20 19 17 17 16 14 10 9 3 7 9 10 9 3 -0 2 6 3 3 5 -0 1 6 9 10 11 11 10 10
32 32 29 26 25 24 25 24 24 23 24 23 23 23 23 22 20 18 17 15 12 8 8 5 7 9 9 8 6 6 2 7 2 1 3 2 2 2 5 10 9 11 10
32 32 31 29 28 28 27 27 27 26 26 26 26 25 24 24 24 22 21 17 13 12 9 6 7 8 8 8 8 6 1 3 2 1 -0 6 3 4 4 5 9 10 11

GFSGL_sfc_temp_003.txt.gz
Temp
53 51 51 51 51 51 50 50 50 49 50 50 50 50 49 48 49 48 47 46 45 45 44 43 43 44 43 43 42 42 40 39 34 38 41 43 43 43 46 49 50 49 49
51 50 50 50 50 49 49 49 48 48 48 48 48 48 48 48 47 47 46 46 45 43 43 42 42 43 41 42 41 39 39 39 36 33 38 37 40 43 43 44 48 50 48
51 51 50 49 48 48 47 47 47 46 47 47 47 45 46 46 47 45 44 43 43 43 42 41 40 40 39 39 38 37 36 36 34 32 33 38 39 42 42 44 45 46 47
51 50 48 48 47 47 46 46 45 45 45 46 44 45 45 45 45 44 43 43 42 41 41 40 39 38 37 36 35 34 34 32 32 31 31 33 36 40 38 39 40 43 44
49 48 48 47 47 47 46 45 45 45 45 44 44 44 43 43 43 43 42 41 40 39 39 38 38 35 34 34 34 33 32 30 30 30 30 32 33 34 32 35 38 41 43
47 47 48 46 46 46 45 44 44 45 45 44 43 42 41 41 36 36 37 39 37 36 35 35 35 33 34 31 31 31 31 29 29 29 30 30 33 34 35 32 31 35 36
46 47 46 45 45 45 44 44 44 44 44 43 41 41 40 40 35 33 32 37 35 34 33 33 33 34 32 33 32 32 32 31 31 31 29 31 32 34 34 32 32 32 34
46 46 46 45 44 44 43 43 43 44 43 43 41 40 39 37 33 33 32 35 34 33 32 32 31 32 32 31 31 31 32 33 34 34 33 34 35 36 34 34 34 34 37
45 46 46 45 44 43 43 43 43 42 42 41 40 38 37 37 33 32 33 33 31 31 32 32 31 31 30 31 31 29 31 32 34 33 32 32 33 33 33 33 30 30 29
45 46 46 45 44 43 43 43 42 42 41 40 36 36 32 34 30 31 32 31 28 29 31 31 29 29 29 30 29 28 25 29 30 31 33 34 34 35 32 34 34 28 30
45 44 45 45 43 43 43 42 41 40 38 35 33 34 33 33 32 30 30 30 29 29 29 29 30 27 29 29 28 28 26 28 28 29 30 32 33 33 34 36 36 34 32
43 43 43 43 42 42 42 41 39 38 36 33 30 31 33 31 29 29 30 29 29 28 27 28 28 28 27 27 27 26 27 26 27 26 27 28 29 30 33 34 35 35 37
41 41 41 41 41 41 40 39 37 36 35 33 33 32 33 32 32 28 28 28 29 27 29 28 26 26 25 26 25 24 24 25 24 24 24 26 28 30 31 32 34 35 35
38 38 39 39 39 41 40 40 37 35 35 34 34 33 33 32 31 32 31 31 28 28 27 27 24 24 23 23 25 25 25 24 22 23 24 26 28 29 30 32 32 33 31
37 38 37 37 38 38 39 39 37 38 38 36 35 34 31 30 31 30 29 31 30 28 24 26 26 25 24 25 25 24 24 23 22 22 23 24 26 27 29 31 31 32 31
35 38 37 36 36 37 35 37 34 34 32 33 32 31 32 30 29 30 30 31 30 28 26 25 23 22 22 23 23 22 23 20 21 21 22 24 24 25 27 29 30 30 30
35 36 37 34 34 34 34 34 35 35 33 33 34 33 32 31 29 31 31 31 30 27 26 26 24 23 22 24 23 23 21 21 19 21 21 21 22 25 26 27 28 29 28
36 33 35 35 36 35 35 34 33 33 32 33 33 32 33 33 31 31 31 31 29 27 27 26 25 25 25 24 24 23 22 21 20 19 20 20 20 22 24 25 26 25 28
37 37 35 34 34 33 32 32 33 31 31 31 33 30 30 29 32 32 32 30 29 29 29 28 27 26 26 25 24 21 20 20 18 18 19 19 19 21 22 23 24 22 24
37 34 34 35 33 33 33 33 33 33 33 32 32 32 34 25 29 30 30 29 28 28 29 28 29 28 26 25 24 22 21 21 20 20 19 19 19 20 21 21 22 23 24
37 36 34 33 33 33 33 33 33 33 32 33 33 32 29 30 31 31 31 29 28 29 29 29 29 28 27 25 24 24 21 21 20 19 19 20 19 18 20 21 22 23 24
34 34 33 32 32 32 33 33 33 33 32 31 32 32 24 25 30 31 31 30 30 30 30 30 29 29 29 27 26 24 22 20 20 20 19 18 19 20 20 20 20 21 22
33 32 32 32 32 31 31 32 31 31 31 31 31 31 32 29 30 30 31 31 31 30 30 28 27 27 27 25 25 25 23 22 22 20 18 18 19 20 20 19 19 19 19
33 32 33 32 32 31 30 30 30 29 30 30 30 31 30 31 31 30 31 31 31 30 29 26 26 27 27 25 24 23 23 21 21 20 16 17 18 19 20 19 19 18 18
33 33 33 32 32 31 31 30 30 31 31 30 31 31 31 31 30 31 31 31 30 29 28 25 25 25 24 22 23 22 21 17 18 16 18 16 16 15 17 19 18 19 18
33 33 33 33 32 32 31 31 31 31 31 31 31 31 31 31 31 31 31 30 30 29 28 28 25 23 24 24 22 20 15 13 16 12 17 18 17 18 19 18 16 19 18

GFSGL_sfc_temp_006.txt.gz
Temp
63 60 60 60 59 59 58 57 56 56 56 56 56 55 54 54 55 53 53 53 51 51 52 50 49 49 49 49 49 48 46 45 39 43 46 47 45 45 47 48 50 52 52
61 60 59 60 58 57 57 56 55 54 55 54 54 54 54 54 53 52 52 52 51 50 49 49 48 49 47 47 47 45 45 44 39 36 40 41 42 44 45 45 47 52 49
61 61 61 59 57 56 56 55 55 54 53 53 54 52 52 52 52 52 52 51 50 49 48 47 46 46 44 45 44 43 41 39 39 37 36 39 40 42 41 44 44 48 49
61 61 58 57 56 55 55 54 53 53 52 53 53 52 51 52 52 51 50 49 49 48 47 46 45 44 42 41 40 39 38 35 36 36 35 36 39 41 41 39 39 44 46
58 59 57 56 56 55 54 53 53 52 52 53 51 51 51 50 50 48 47 47 47 45 45 45 44 39 35 35 36 36 35 34 33 32 33 34 34 36 37 39 37 40 39
58 57 57 55 54 53 53 52 52 52 52 52 51 49 49 50 36 35 38 45 45 43 42 42 42 38 38 33 33 33 33 32 30 30 30 31 32 34 36 36 34 36 35
56 56 54 54 52 53 53 53 52 51 52 51 51 49 48 47 35 34 34 43 43 42 40 40 39 40 37 38 35 34 34 33 33 32 30 32 33 36 37 36 34 34 36
55 54 54 53 52 53 53 52 52 51 50 50 50 49 47 44 34 33 33 42 42 41 39 39 38 38 38 33 34 35 37 38 37 37 36 35 36 36 35 37 36 37 39
53 54 54 53 53 53 52 51 52 51 50 50 49 47 45 44 33 32 33 39 38 37 38 39 36 36 33 30 32 32 35 36 36 34 34 34 34 33 34 35 32 32 30
53 53 53 54 52 52 52 51 51 50 49 49 46 45 37 41 31 32 33 38 34 35 37 37 33 32 29 30 30 30 28 32 32 33 34 35 36 36 34 36 35 30 32
52 52 53 53 52 52 51 51 50 49 48 44 41 42 41 39 38 31 31 34 34 33 34 35 36 30 29 29 29 30 28 30 30 30 32 33 36 37 37 38 38 36 32
51 51 51 50 49 49 49 49 49 47 45 41 35 38 41 39 32 32 30 30 31 31 31 34 33 30 29 28 29 27 27 27 30 28 29 29 32 32 35 36 37 37 39
49 48 48 48 47 48 47 47 47 46 43 41 40 39 41 41 40 31 30 30 30 31 32 31 28 28 28 30 29 27 27 30 28 27 27 28 30 32 34 34 36 38 39
45 46 46 45 42 45 47 47 46 44 43 41 40 40 41 40 39 39 38 37 31 32 33 33 30 27 28 30 32 32 31 29 27 26 27 29 31 32 32 34 33 35 33
44 43 44 43 41 40 41 46 44 46 44 42 42 41 36 34 37 36 35 35 34 33 29 31 32 32 31 32 32 31 31 29 27 27 26 27 29 30 31 33 33 33 32
40 42 44 43 42 40 40 40 36 36 34 34 34 34 36 34 31 32 31 31 31 30 30 30 30 29 29 30 30 30 30 28 27 26 26 27 27 27 29 31 32 32 31
40 42 42 41 42 41 40 36 37 37 34 34 34 34 33 33 32 31 32 31 31 30 29 31 29 29 30 31 31 30 29 29 26 26 26 25 26 26 28 29 30 30 30
41 36 41 43 43 41 40 38 38 36 35 36 34 34 34 34 33 32 32 32 31 30 31 30 30 30 31 32 31 30 29 28 27 26 25 25 25 26 26 27 28 27 28
41 43 42 40 39 39 38 39 39 37 35 36 37 33 34 32 33 33 32 31 31 32 34 33 33 31 31 32 30 29 27 26 25 24 25 25 25 26 27 27 27 26 27
43 36 35 37 36 37 38 39 38 37 35 36 36 38 39 33 32 32 32 32 32 33 34 34 34 33 32 31 30 29 28 27 27 26 26 25 26 25 25 26 27 26 28
44 42 36 39 39 35 35 35 36 36 36 37 37 35 34 36 34 34 34 33 33 34 34 34 34 33 32 31 30 29 28 27 27 26 25 26 25 25 26 26 26 27 28
42 41 40 37 38 37 37 37 36 36 36 35 36 36 33 33 34 35 35 34 34 35 36 35 34 35 34 33 32 30 28 27 26 26 25 24 25 26 26 25 25 25 26
39 37 35 36 36 35 34 34 34 34 34 34 35 35 36 33 33 34 34 34 35 34 35 35 32 33 34 33 32 31 29 29 28 27 24 24 25 25 25 25 24 24 23
37 34 35 35 34 35 33 33 32 32 33 33 33 33 33 33 33 33 33 33 33 33 33 33 34 33 33 32 31 31 31 29 28 26 23 23 24 24 24 24 24 23 23
36 34 34 34 33 33 32 32 32 32 32 32 32 33 33 33 33 33 33 33 33 32 33 32 33 32 31 31 31 30 30 26 25 25 25 23 22 21 22 23 23 24 22
35 33 34 34 33 33 33 32 33 32 32 32 32 32 32 32 33 33 33 33 33 33 32 32 32 31 31 30 30 29 27 21 21 20 24 24 23 23 24 23 21 23 23

GFSGL_sfc_temp_009.txt.gz
Temp
65 65 61 63 62 62 61 59 59 58 58 58 57 57 57 56 57 55 54 53 53 52 52 50 49 50 49 49 49 49 47 47 42 45 48 48 46 45 46 47 48 48 50
66 62 62 63 62 61 60 59 58 57 57 57 56 56 56 56 55 54 53 53 52 50 50 49 48 50 47 48 48 46 46 46 43 38 42 42 41 43 44 44 46 49 49
64 64 64 63 61 60 59 58 58 57 56 56 56 55 55 53 53 53 53 52 50 49 49 47 47 46 45 46 45 43 43 44 41 37 36 39 41 43 42 43 44 45 48
65 65 63 61 61 59 59 57 56 56 55 55 56 55 53 53 54 53 52 51 49 48 47 47 46 45 43 40 40 39 40 38 38 36 36 37 38 40 40 38 38 42 42
64 64 62 61 60 59 57 56 56 54 55 55 54 53 52 52 52 48 49 48 47 47 47 47 46 42 38 37 37 36 36 34 34 33 32 33 34 34 35 38 36 38 41
61 60 61 60 59 57 56 55 55 55 55 55 54 52 50 51 35 36 37 45 46 46 44 44 44 42 40 37 36 35 35 33 32 32 31 30 32 35 37 35 35 34 32
61 60 59 58 56 55 56 56 55 54 54 54 53 53 50 49 36 35 35 42 45 44 43 42 42 44 40 40 37 36 36 36 35 34 31 32 31 35 33 32 33 34 33
59 58 57 57 56 56 56 55 55 55 54 53 52 52 50 43 35 34 34 40 44 43 42 41 40 40 37 33 33 34 36 38 39 38 36 35 36 36 35 35 35 35 37
55 56 57 57 56 56 55 54 55 54 53 53 52 51 49 43 35 34 33 41 41 40 41 41 40 38 32 31 31 31 33 35 39 37 36 35 34 34 35 34 31 31 30
57 57 57 57 56 55 54 53 54 54 52 52 51 49 38 44 34 33 34 39 37 37 39 40 35 33 30 30 29 29 27 32 32 33 34 35 36 37 36 35 34 29 30
55 55 55 56 55 54 53 53 52 51 51 48 45 46 45 42 39 33 33 35 36 35 36 37 38 33 31 30 30 29 28 29 29 31 32 33 35 36 37 38 37 34 31
54 53 53 53 53 52 49 50 50 50 48 46 39 42 44 43 35 33 33 32 33 32 33 36 35 31 30 30 30 31 29 28 31 30 29 30 31 32 34 36 37 38 38
51 50 50 50 49 48 48 47 47 49 46 43 41 39 42 42 40 34 32 31 31 31 34 34 31 31 31 32 33 31 29 32 30 27 27 28 30 33 34 34 34 35 39
46 46 46 45 45 45 46 48 48 46 44 42 40 40 42 43 43 40 35 34 31 32 33 35 33 31 31 30 31 35 34 33 29 28 28 29 32 32 32 35 33 33 33
42 43 44 43 44 46 46 45 44 47 44 42 42 42 39 36 39 38 37 37 36 34 31 32 33 34 33 33 34 34 33 32 31 29 28 27 28 30 31 33 33 33 30
40 41 42 44 44 45 44 42 40 38 37 37 35 37 39 37 34 34 34 33 32 31 31 31 31 31 30 32 32 32 32 31 31 29 28 28 27 27 28 31 32 31 31
40 41 42 40 44 44 40 37 36 40 36 35 35 35 34 35 34 33 33 32 32 31 29 31 31 31 30 32 33 33 31 31 29 30 28 28 27 27 28 28 29 29 29
41 37 43 43 43 41 40 39 38 37 36 37 34 35 35 34 34 34 33 32 31 31 32 32 32 32 32 33 33 33 31 29 29 29 28 28 27 26 27 28 28 27 28
44 44 43 42 40 38 39 39 39 37 36 37 38 33 35 34 34 34 33 32 32 32 34 34 35 35 34 33 33 31 30 29 28 27 28 27 26 27 26 27 28 27 28
45 39 37 40 39 37 37 37 38 38 37 37 37 37 41 37 32 32 32 32 32 34 34 34 36 36 35 34 32 31 30 29 29 28 28 27 27 27 26 26 26 27 28
46 44 37 38 39 38 37 37 38 38 37 37 37 36 36 38 36 35 36 34 33 35 35 36 35 35 34 33 33 31 30 30 29 28 28 28 26 25 28 28 27 26 28
45 43 41 38 38 37 37 38 37 37 37 36 37 37 34 35 36 36 36 35 35 37 37 36 36 37 36 35 34 31 31 29 29 29 27 27 26 27 27 27 27 26 26
42 39 38 38 37 35 35 37 36 35 35 35 36 35 35 33 34 36 35 34 35 35 36 36 34 35 36 35 34 34 31 30 31 30 28 27 26 27 26 25 26 25 25
38 37 38 37 35 37 35 34 34 34 34 33 33 33 33 33 33 33 34 34 34 33 33 33 34 34 35 34 33 34 33 33 32 30 27 26 26 26 26 25 25 25 24
35 35 34 35 34 33 33 34 33 34 33 33 33 33 33 33 33 33 33 34 34 33 33 33 33 33 33 33 33 32 32 32 30 30 28 26 25 24 23 24 24 24 24
33 34 34 33 33 33 33 33 33 33 32 32 32 32 32 33 33 33 33 33 33 33 33 33 33 33 33 33 32 32 32 30 27 26 27 27 25 24 25 24 24 23 24

GFSGL_sfc_temp_012.txt.gz
Temp
61 59 57 57 57 57 55 54 53 52 52 52 52 51 50 50 50 48 47 47 45 44 45 42 41 43 39 39 39 39 38 38 33 37 40 38 38 37 40 41 42 41 42
61 59 58 58 58 56 55 54 53 52 52 51 51 51 51 50 48 47 46 46 44 41 42 42 41 46 39 39 37 36 36 36 34 31 34 35 34 37 37 37 41 44 42
63 60 59 58 56 55 54 54 53 52 51 50 51 50 50 49 48 47 46 46 44 43 43 40 41 40 36 35 33 33 34 37 33 30 30 34 34 35 35 37 37 38 43
62 61 58 56 57 55 54 53 52 52 50 49 49 50 49 49 49 48 47 43 42 43 41 41 40 38 34 32 33 30 32 29 30 29 30 30 31 33 33 31 31 35 35
58 60 57 56 56 56 53 53 52 51 50 50 49 49 48 48 49 42 42 41 39 39 40 41 40 39 39 35 33 29 28 27 27 27 27 28 28 28 28 31 30 31 33
58 57 59 57 57 53 52 51 51 50 50 49 48 48 47 50 37 37 39 36 39 39 37 37 37 40 37 36 37 37 33 27 26 26 26 26 27 28 30 28 27 27 25
57 58 57 55 52 51 52 52 50 49 49 48 48 47 46 38 37 37 35 35 36 36 35 35 36 41 35 32 33 34 33 35 35 30 28 28 27 27 29 26 26 26 26
57 56 53 52 51 53 52 51 50 49 48 47 47 47 46 39 36 36 35 32 34 35 34 34 33 32 28 29 28 27 29 30 32 35 28 28 29 30 29 30 28 28 29
55 52 52 51 53 52 50 49 48 48 47 46 48 46 43 35 36 35 34 32 33 33 35 35 34 32 31 32 27 26 26 28 35 34 34 34 35 35 34 30 25 25 23
53 54 53 51 52 50 48 48 47 47 47 47 45 44 38 33 35 35 34 29 30 30 32 33 34 31 32 31 25 24 22 25 26 27 28 31 32 33 36 32 29 25 24
52 49 47 50 49 49 47 47 45 44 43 39 37 38 38 35 32 35 34 29 28 28 28 28 29 33 32 32 31 25 24 27 27 26 28 28 29 31 30 32 31 29 27
46 45 49 48 49 49 44 43 43 42 39 39 35 35 34 35 35 34 34 33 33 25 27 28 28 33 32 32 30 31 32 28 23 21 24 25 26 26 29 30 32 33 31
46 46 45 46 46 45 41 40 40 41 37 36 34 32 32 33 33 34 34 33 32 25 27 30 33 32 33 31 33 33 27 23 22 16 20 25 26 28 29 30 31 34 35
42 41 43 41 41 42 43 42 39 36 35 34 33 32 33 33 32 29 29 29 30 28 28 29 27 27 25 26 25 28 27 24 22 20 18 22 25 26 26 28 27 29 29
41 40 40 37 39 41 42 40 35 37 35 33 33 33 32 31 31 35 32 32 30 30 24 23 22 25 24 26 24 25 25 24 22 21 17 20 23 25 25 26 28 28 27
38 37 37 36 36 39 39 39 39 37 37 37 36 34 32 36 35 36 35 35 34 31 23 20 19 20 21 22 21 22 22 22 22 20 18 18 19 21 24 25 28 26 25
37 37 36 35 36 36 35 34 33 36 38 36 35 35 35 36 35 35 34 33 33 30 20 21 22 22 24 24 22 22 20 21 21 20 18 17 17 20 22 23 24 26 24
38 36 36 37 37 35 34 34 36 34 34 35 34 34 35 35 35 34 34 32 24 28 25 25 25 24 24 24 24 23 21 19 19 19 16 17 15 17 16 21 22 19 22
39 39 38 36 35 34 34 34 34 34 35 34 35 33 33 34 34 34 34 28 26 26 27 27 28 28 27 25 22 21 20 19 17 14 16 18 19 17 16 16 19 20 19
42 37 36 38 37 36 35 35 34 34 33 34 33 33 34 32 31 30 30 29 28 29 29 29 29 28 26 25 25 23 21 23 20 21 16 14 19 15 13 17 13 17 21
41 41 37 36 36 37 35 34 34 33 34 33 34 34 35 33 32 32 31 30 30 30 30 31 30 31 30 28 26 26 23 22 21 19 17 16 16 12 16 16 16 17 20
38 38 39 37 37 35 35 35 34 34 34 33 33 33 34 34 33 33 32 32 33 33 33 32 32 32 32 31 31 29 26 23 22 20 17 15 15 15 15 19 17 14 16
35 35 35 36 36 36 34 34 34 34 34 34 33 32 32 33 33 33 33 33 33 33 33 33 33 32 33 34 33 32 29 27 26 24 20 16 15 14 17 13 15 14 12
33 32 32 33 32 33 33 34 33 33 33 33 33 32 33 33 32 33 33 32 32 33 33 33 33 33 33 32 33 33 32 30 26 24 21 17 15 15 13 14 14 13 11
31 31 31 32 32 32 32 33 32 31 33 32 32 32 32 32 32 32 32 32 32 32 33 33 33 33 33 33 32 32 31 30 28 23 23 16 14 12 13 12 11 13 12
27 26 26 29 31 32 32 32 31 30 30 31 32 31 31 29 30 30 30 30 29 30 29 30 29 31 33 33 33 32 31 30 28 26 23 22 16 12 11 12 12 11 13

GFSGL_sfc_temp_018.txt.gz
Temp
52 51 50 49 49 48 49 49 48 47 49 49 48 46 47 45 45 43 43 42 40 39 39 38 38 39 36 35 33 32 30 28 25 26 28 29 29 29 32 32 35 34 35
54 52 51 51 51 49 48 47 48 48 48 48 46 47 46 45 44 43 42 42 40 39 38 39 39 43 35 32 30 29 28 28 26 23 25 27 27 28 29 29 34 38 34
54 52 50 50 50 51 50 49 47 48 47 47 47 45 45 44 44 44 42 41 40 39 39 38 38 36 32 30 30 28 27 31 26 23 25 26 26 28 29 30 30 30 35
54 52 50 51 53 52 49 46 45 45 44 45 46 46 46 45 45 44 41 38 38 39 39 37 36 34 32 30 29 28 28 25 25 24 25 26 26 29 27 25 27 29 29
52 51 51 53 53 50 45 45 45 44 45 46 45 46 46 45 45 41 40 38 37 36 36 37 35 36 39 33 30 26 26 24 23 23 23 24 25 25 24 26 25 26 27
51 51 54 52 49 47 44 44 45 46 47 45 45 44 43 46 42 40 38 35 36 35 34 33 33 37 36 36 35 34 30 24 22 21 22 22 22 23 24 23 23 23 22
50 54 51 49 46 46 46 44 45 45 45 45 44 43 41 41 40 40 38 34 36 34 32 32 33 35 32 30 32 31 30 31 31 24 21 21 21 24 24 23 23 23 23
48 49 48 46 46 46 44 44 43 44 43 42 42 42 40 41 38 38 37 34 33 33 31 30 30 29 28 29 27 26 26 26 27 28 24 24 25 26 27 28 27 27 26
46 46 47 46 45 44 42 41 42 42 41 39 41 41 40 36 37 37 34 31 32 31 32 32 31 28 31 34 28 26 25 26 31 32 32 32 32 32 32 29 24 23 21
44 44 45 44 44 42 41 41 41 40 41 41 39 39 38 34 36 36 35 28 29 28 29 30 34 30 32 32 25 23 21 25 24 26 26 27 28 28 31 27 26 22 23
44 44 44 44 42 41 41 42 41 38 37 34 34 34 34 32 32 36 36 29 28 28 28 27 27 33 33 33 33 25 22 26 26 26 25 25 25 25 26 27 26 25 23
44 43 42 42 43 43 40 39 38 36 33 32 30 31 28 30 33 35 36 34 32 26 27 27 26 32 33 34 32 32 32 28 21 19 19 21 21 22 25 26 27 27 27
42 41 41 41 40 40 36 35 34 34 29 29 28 26 28 29 29 34 35 35 33 26 26 28 30 32 33 31 33 32 28 23 19 11 19 17 20 23 25 25 26 27 28
37 37 36 35 35 36 36 35 32 28 27 30 29 28 27 28 30 29 30 31 31 28 27 28 25 26 22 23 22 26 25 22 21 19 15 16 18 18 19 21 22 23 23
35 35 34 31 32 32 33 32 31 32 31 30 30 28 26 25 31 35 32 28 28 29 20 16 17 18 21 22 21 22 22 21 18 15 16 16 16 18 19 20 21 22 16
34 32 30 29 29 30 31 32 35 35 35 35 35 32 29 33 35 36 35 34 33 30 23 16 20 18 19 21 19 19 19 18 18 17 15 15 14 13 16 19 20 18 18
32 32 30 29 29 29 30 30 30 34 34 35 35 36 35 35 35 35 36 34 33 31 26 27 23 20 19 20 20 20 19 19 18 18 16 14 10 13 13 16 16 17 19
32 31 30 30 30 31 30 31 31 31 33 34 32 35 36 36 36 35 35 34 30 30 27 25 21 21 20 21 21 21 21 16 16 17 13 9 3 9 10 12 14 8 14
32 31 31 31 32 33 33 33 34 33 34 33 34 29 31 34 35 35 34 32 29 26 27 25 25 24 23 24 23 22 22 19 16 16 13 10 4 10 8 10 9 10 9
29 28 26 28 28 29 30 31 32 32 33 33 33 32 32 25 27 27 30 32 31 30 27 27 27 27 26 25 24 24 23 19 19 17 13 9 7 6 7 7 4 6 14
25 26 25 26 26 26 26 26 27 27 28 30 32 32 29 30 31 29 32 31 31 31 30 29 28 28 27 27 26 25 24 23 23 22 21 16 7 6 11 7 5 10 15
23 23 24 23 24 22 23 24 24 26 27 28 29 31 34 31 31 32 32 32 33 32 32 30 30 30 30 28 27 26 24 23 23 24 23 20 15 12 11 7 5 6 10
20 18 19 19 18 19 19 20 20 21 20 23 25 28 30 31 31 32 31 31 32 33 33 32 32 31 31 30 30 30 28 26 26 26 24 21 18 14 9 7 7 5 5
17 12 14 14 14 14 14 15 17 16 16 17 18 20 21 27 31 30 30 32 32 30 30 32 32 31 31 30 31 31 30 31 29 28 27 24 21 17 11 6 7 5 4
12 7 8 9 10 10 11 12 12 12 14 14 15 16 17 18 20 20 21 21 21 22 21 22 22 23 23 27 30 30 31 31 31 28 27 26 23 20 17 12 6 7 5
10 11 5 7 8 8 8 9 9 9 10 11 13 13 14 15 16 16 16 17 17 17 17 19 19 19 20 21 22 25 26 29 31 30 28 26 24 21 18 15 12 9 9

GFSGL_sfc_temp_021.txt.gz
Temp
52 51 51 49 48 49 48 49 49 48 48 48 47 47 47 46 44 42 41 41 39 38 38 37 37 37 35 33 31 30 29 28 24 27 27 28 27 27 30 29 32 31 32
53 50 49 50 49 48 50 50 49 48 48 48 47 47 47 46 45 43 41 41 38 37 37 36 37 40 35 33 30 29 28 27 26 24 25 25 26 27 28 27 32 35 32
51 50 49 48 49 49 50 49 48 48 45 46 46 46 46 45 43 42 41 39 37 37 38 37 36 35 32 30 29 28 27 30 26 23 24 25 25 26 27 28 29 29 33
51 50 49 49 49 49 50 48 48 47 45 45 46 46 45 43 43 42 41 39 37 37 37 36 35 34 32 30 29 28 28 25 25 23 23 24 24 27 26 24 26 29 29
50 50 49 50 49 51 48 47 45 45 46 46 45 45 43 43 44 40 39 37 36 36 35 36 35 35 38 33 30 27 25 23 23 22 22 22 23 22 22 24 23 25 26
50 51 50 49 51 47 46 45 45 45 45 45 45 43 41 45 43 41 39 36 36 35 33 34 35 37 37 37 37 34 29 24 22 20 20 20 21 21 21 21 21 22 21
49 49 50 48 46 45 45 45 44 44 43 43 42 42 42 41 40 41 39 35 34 33 34 34 32 34 33 31 34 34 32 32 31 23 19 20 20 22 23 22 23 23 23
45 45 45 46 44 44 44 43 42 42 41 40 41 41 39 39 39 39 37 33 33 33 32 31 30 30 29 29 28 27 26 27 27 28 24 23 24 25 25 27 26 26 26
43 43 45 45 43 43 41 41 40 39 40 40 39 39 38 37 38 38 35 31 31 31 32 31 30 29 32 34 28 26 26 26 32 32 33 32 32 32 31 25 22 22 20
41 42 44 44 43 41 40 40 40 40 40 39 37 36 36 35 37 37 34 28 29 29 29 30 35 31 33 33 26 24 21 25 25 26 26 27 29 27 30 26 24 21 22
44 43 43 43 42 41 40 40 40 39 36 33 32 32 33 32 32 37 36 30 30 28 29 28 29 33 34 34 33 25 23 26 25 25 25 24 25 25 26 27 25 23 22
43 43 43 42 42 42 39 39 38 34 32 31 30 30 29 30 33 34 36 35 32 28 28 29 28 33 34 34 32 32 32 27 19 17 17 20 20 21 24 25 26 26 26
40 41 40 40 39 38 35 34 32 32 29 29 29 29 29 30 27 34 35 35 34 28 29 29 31 33 34 32 33 33 28 21 16 12 17 18 18 23 24 24 25 26 27
36 35 35 34 34 34 34 33 31 29 27 30 29 29 30 28 27 28 31 32 33 31 28 30 28 28 24 24 23 28 23 22 20 17 16 15 17 18 17 21 19 22 20
34 33 32 30 32 32 32 31 31 31 32 31 31 31 29 29 30 32 31 30 31 32 31 25 24 21 23 24 22 23 21 20 17 14 12 14 16 17 17 18 19 19 13
32 31 29 29 29 30 30 32 35 34 35 35 35 34 34 34 35 36 36 35 35 33 27 25 24 23 22 23 21 21 18 18 19 18 13 15 16 14 15 17 18 15 14
30 30 30 30 30 29 30 29 28 33 36 36 35 35 36 36 36 36 36 35 34 33 26 25 24 25 24 24 23 21 21 20 19 18 17 15 16 14 12 14 14 15 14
29 29 27 27 27 28 28 29 31 31 30 32 35 35 36 37 37 37 37 34 31 31 29 27 28 28 25 24 23 22 22 20 16 16 13 13 13 14 9 12 12 7 11
27 26 26 24 23 24 25 25 26 25 25 27 29 31 34 33 33 35 35 32 31 30 30 29 28 27 25 25 23 23 23 21 14 10 15 15 11 13 10 11 9 9 8
23 23 21 23 23 23 23 23 23 23 23 24 25 26 28 29 29 29 30 30 32 32 30 29 30 28 27 25 24 24 23 21 18 15 16 15 16 13 12 10 3 3 12
21 22 21 22 20 20 20 19 21 20 20 20 20 20 20 23 26 28 31 32 31 31 31 30 29 29 28 27 26 25 24 23 23 21 20 18 16 14 15 11 8 10 13
19 17 17 16 17 16 16 17 16 17 16 16 16 18 19 20 20 22 29 32 32 31 33 31 30 30 30 28 28 27 25 24 25 24 23 21 19 18 18 12 5 4 9
16 10 11 13 12 11 11 12 13 12 12 13 14 15 15 16 16 17 18 19 31 33 32 31 31 31 30 30 30 29 27 26 26 27 25 22 20 20 17 14 10 3 4
12 4 9 9 8 8 7 7 9 8 9 9 10 12 12 14 14 15 15 16 18 19 20 21 22 23 25 30 31 30 30 29 29 27 27 25 23 21 18 14 12 7 4
3 1 -0 3 1 3 3 5 5 5 5 6 7 9 11 12 13 12 13 13 14 15 17 18 19 20 21 22 23 26 29 30 29 28 27 26 23 21 20 17 15 9 4
3 2 0 -4 -2 -1 -0 1 -0 2 2 3 5 6 7 9 9 10 11 11 11 12 14 15 17 16 17 19 21 23 23 25 26 28 27 26 24 22 20 18 16 14 11

GFSGL_sfc_temp_024.txt.gz
Temp
50 50 49 49 49 49 49 48 49 49 49 48 47 46 46 45 45 43 41 39 38 38 37 36 36 36 35 34 33 33 31 30 28 30 30 31 30 31 32 32 33 33 33
50 49 49 47 48 48 48 49 48 49 48 48 47 46 46 45 44 42 40 40 38 37 36 35 36 39 35 34 32 31 30 29 28 26 28 28 28 30 30 29 32 35 34
49 49 48 49 48 49 49 49 49 48 47 47 46 46 46 45 44 41 40 39 37 37 36 35 36 35 33 31 31 30 29 31 28 26 26 28 28 29 29 30 30 31 33
49 48 48 48 49 49 49 46 45 47 46 46 46 46 46 45 44 43 41 38 37 37 36 36 35 34 34 32 31 29 29 27 26 25 25 26 26 29 28 26 26 29 29
48 48 47 47 48 47 44 46 46 45 46 46 45 45 44 42 44 41 39 38 36 35 35 35 34 36 38 34 31 29 27 26 25 24 24 24 24 24 24 26 24 26 27
47 47 48 46 45 44 43 44 42 44 44 43 43 42 41 44 42 41 40 36 36 34 34 33 34 38 37 38 38 35 30 26 24 22 23 22 23 23 24 23 23 23 23
46 46 45 44 42 43 44 44 43 43 43 42 42 41 40 40 40 40 39 35 34 35 33 34 33 35 34 32 35 35 33 33 31 26 22 23 22 24 25 23 24 24 24
42 42 42 42 43 44 44 43 42 42 42 41 40 40 39 40 39 39 38 34 33 33 33 33 32 32 31 30 29 28 28 29 29 29 26 26 26 27 26 27 26 25 27
40 41 42 44 44 43 42 41 41 40 40 40 40 39 39 37 38 38 36 31 31 31 33 32 31 30 33 35 29 27 27 28 32 33 33 31 32 33 32 27 23 22 20
40 41 43 44 43 41 41 40 40 40 39 39 38 38 36 33 36 37 36 28 29 30 30 31 35 31 33 34 29 26 23 27 27 27 28 29 31 29 31 29 26 20 21
41 41 43 43 42 42 41 40 39 39 37 34 33 32 33 33 32 36 37 30 30 29 30 29 31 34 35 35 34 26 25 28 26 26 26 27 27 27 27 28 28 25 21
40 40 41 42 42 42 39 39 36 33 31 30 28 31 30 31 34 34 35 36 33 28 30 30 30 33 35 35 34 32 31 28 24 23 22 22 23 23 26 28 28 28 27
38 37 37 37 36 35 33 32 31 30 26 29 29 29 31 31 30 34 34 35 35 29 31 32 32 33 34 33 34 33 30 26 22 18 20 22 22 25 27 26 27 28 28
33 32 32 31 32 31 31 31 30 28 27 30 29 30 30 31 29 29 29 29 31 31 30 31 30 30 30 30 29 31 31 26 24 22 21 21 21 21 22 23 22 23 22
32 31 30 29 29 30 30 30 30 30 30 30 31 30 29 30 33 33 33 29 29 30 30 23 23 26 26 26 26 27 27 25 22 20 18 19 19 20 21 22 21 21 18
30 29 28 27 26 28 29 29 33 34 35 35 35 33 33 35 35 36 36 36 35 33 29 27 26 26 25 27 26 26 26 25 24 22 19 19 19 19 20 20 20 19 18
27 28 26 26 26 25 25 25 22 28 32 32 33 32 33 33 33 35 35 34 34 34 30 29 28 27 26 26 26 26 25 25 25 22 22 19 18 19 17 19 19 18 18
26 25 23 23 22 22 21 22 22 22 20 22 27 29 29 29 29 31 33 33 30 32 31 30 29 28 27 26 26 26 26 25 22 21 19 18 16 17 16 17 18 15 16
24 23 22 19 19 20 20 20 20 20 20 20 21 22 22 24 26 28 30 28 28 29 31 31 29 29 29 28 27 27 26 24 23 19 20 17 14 17 16 17 16 12 12
22 21 19 20 19 18 18 17 18 17 17 17 16 16 18 17 16 17 18 18 21 27 30 31 31 31 30 28 27 26 25 24 22 20 19 19 15 16 18 17 15 13 17
18 18 15 17 16 15 14 14 14 14 13 13 13 14 14 14 14 15 16 16 17 17 21 31 31 30 29 29 27 26 25 24 24 23 21 20 15 16 18 19 18 15 16
15 14 14 13 13 11 10 12 11 10 10 9 10 11 12 12 13 13 14 14 15 17 19 19 31 30 29 29 28 27 26 25 25 24 22 21 18 18 18 18 17 13 15
13 6 8 10 8 6 5 6 7 6 6 6 7 8 9 9 10 11 11 13 13 14 16 17 19 22 28 30 31 30 27 26 27 26 24 23 20 19 20 18 17 13 12
8 1 6 4 1 3 -3 -4 -1 1 3 3 2 4 6 6 7 7 8 10 11 11 13 14 16 17 18 21 24 30 30 29 29 28 28 25 23 21 21 20 18 15 14
-1 -5 -5 -4 -10 -10 -10 -6 -8 -7 -3 -1 -1 1 3 3 5 4 6 8 9 8 10 12 13 14 16 17 20 23 24 29 29 28 28 27 25 23 21 20 19 17 12
0 -3 -4 -8 -11 -12 -13 -12 -10 -11 -7 -4 -3 -2 -1 -0 2 2 3 4 5 6 8 10 11 12 14 16 18 20 20 22 25 28 28 27 25 23 21 20 19 18 16

GFSGL_sfc_temp_027.txt.gz
Temp
64 62 59 57 57 57 55 55 52 50 50 51 48 53 51 50 53 52 52 51 50 51 50 50 49 49 49 49 49 48 47 46 41 45 46 46 43 43 43 44 43 42 43
58 60 59 57 56 55 54 51 50 48 51 50 51 50 53 51 52 52 50 51 49 49 50 49 49 49 48 49 48 46 46 46 43 40 44 42 41 42 41 40 41 42 42
58 58 57 56 55 55 54 52 51 51 49 51 53 53 52 52 52 50 48 49 48 49 50 49 49 48 47 48 47 46 46 44 43 40 40 42 40 41 40 40 40 40 41
58 58 56 55 55 55 55 53 50 51 49 52 52 53 51 51 49 46 47 49 48 49 48 47 48 47 47 47 46 45 44 42 42 40 39 39 39 40 38 36 36 39 38
56 57 56 55 55 55 52 48 48 47 48 48 46 48 47 45 45 44 46 48 48 48 47 47 47 46 44 45 46 45 43 41 40 39 37 37 37 37 35 36 34 36 37
55 55 55 54 53 50 48 46 46 47 46 50 46 45 46 46 40 40 42 48 47 46 46 47 47 41 41 38 38 38 42 41 38 38 37 35 36 36 36 34 33 31 30
53 53 52 52 50 47 46 46 44 46 46 45 45 45 44 45 40 40 39 46 46 46 46 47 46 45 42 45 39 37 35 34 36 39 35 36 34 36 35 33 33 33 32
50 49 50 50 49 48 47 44 44 44 43 43 43 46 45 43 39 39 38 45 46 46 46 46 46 46 44 43 42 41 41 40 38 37 38 38 38 38 36 34 33 33 35
47 47 48 49 48 47 46 43 43 43 42 44 46 43 41 40 39 38 38 43 43 44 45 44 44 45 41 37 39 38 38 39 37 35 34 34 33 32 34 35 31 31 28
46 47 48 48 47 45 46 44 45 46 45 43 39 39 39 43 40 37 38 42 40 41 43 42 37 42 37 35 38 36 34 38 38 37 37 36 35 36 33 35 35 29 29
48 48 48 49 48 48 45 43 41 40 39 39 41 43 43 42 43 38 37 40 39 39 40 41 41 35 35 35 36 36 34 38 35 36 37 37 37 37 37 38 37 34 29
46 45 44 44 42 42 43 43 43 43 41 40 38 40 42 41 38 38 37 36 38 36 37 40 40 36 35 35 36 36 33 32 35 34 33 33 34 35 37 38 37 36 36
43 41 41 41 41 41 41 41 41 41 39 38 38 38 39 40 41 37 35 35 35 35 38 38 36 35 35 34 35 35 33 34 33 31 31 33 35 37 37 35 35 35 35
38 38 38 38 39 40 41 40 39 38 37 36 36 35 35 37 38 39 39 40 37 36 35 37 35 34 34 36 36 35 36 36 34 33 33 35 36 33 32 34 32 32 30
37 36 36 36 36 37 37 36 35 37 35 33 34 33 31 30 32 32 32 32 33 34 33 34 34 34 35 35 36 35 35 34 31 31 32 32 31 32 32 33 31 31 28
34 34 32 33 33 33 33 33 32 31 31 31 31 30 31 30 29 29 30 30 31 32 32 31 32 32 32 32 31 31 32 31 32 31 30 31 31 31 31 32 31 29 28
31 30 31 30 30 29 29 28 27 30 29 29 28 28 28 27 27 27 28 27 30 32 32 33 32 32 33 32 31 31 31 33 33 31 29 29 30 30 29 30 30 29 28
29 26 28 28 28 27 26 26 26 24 23 25 27 26 24 24 24 25 26 26 25 26 27 29 31 33 33 33 34 32 32 33 31 30 29 30 29 30 29 29 30 28 28
28 26 26 25 25 23 24 24 24 23 22 22 23 24 22 20 22 23 23 21 20 21 22 23 24 26 33 34 33 31 31 31 31 29 29 29 29 29 29 30 31 26 24
25 21 22 23 22 21 21 20 20 20 19 19 19 18 19 17 17 18 19 19 19 19 19 20 22 24 24 33 33 32 31 30 30 30 29 29 29 29 29 29 29 28 27
23 21 18 20 20 19 18 17 17 17 16 16 16 16 12 14 15 16 17 16 16 17 17 18 20 21 22 29 34 31 31 31 31 30 29 29 28 27 29 31 30 29 29
19 18 18 17 17 15 14 15 15 13 13 13 13 14 11 14 14 14 15 14 14 16 17 16 17 18 21 20 25 31 30 29 29 30 29 28 27 28 29 29 29 28 28
16 14 15 15 13 11 11 11 11 10 10 11 11 10 11 11 10 11 12 11 12 13 14 14 15 16 17 18 20 24 31 30 32 32 29 28 27 28 28 28 28 27 27
15 13 13 12 10 9 8 6 8 7 7 8 8 8 8 8 8 9 10 10 9 11 12 12 13 14 14 15 19 22 26 29 33 32 30 29 27 27 29 29 28 27 26
13 11 11 9 6 5 5 5 5 5 5 5 6 6 6 6 7 7 8 8 7 8 8 10 12 13 13 13 16 18 20 24 29 31 31 30 28 27 29 28 28 27 26
12 10 9 8 6 5 4 3 3 3 2 3 4 4 4 4 5 5 5 6 5 4 6 8 10 10 12 14 16 16 17 20 23 27 30 30 29 28 28 27 27 26 24

GFSGL_sfc_temp_030.txt.gz
Temp
78 75 72 70 64 61 61 60 61 63 61 57 52 48 49 51 56 55 56 58 53 54 57 56 56 57 56 57 57 56 54 53 48 52 55 55 52 50 50 51 50 49 49
77 75 72 66 64 63 63 62 61 61 54 50 49 50 53 58 57 54 56 54 51 50 54 55 55 57 55 56 56 53 53 54 51 47 51 51 51 50 49 47 48 50 49
73 70 69 67 64 62 60 58 56 52 49 50 51 51 53 53 55 53 52 48 47 51 56 55 55 55 54 55 54 53 54 54 52 48 47 50 50 50 48 47 47 47 49
70 69 68 65 65 64 61 58 58 56 52 52 51 53 51 55 56 50 48 48 51 54 53 54 55 55 54 54 54 53 53 51 50 48 47 47 48 49 47 44 44 46 45
67 67 66 65 65 64 62 62 61 57 54 50 50 49 53 51 51 48 48 47 52 53 54 55 55 53 48 49 54 52 52 49 49 47 46 46 46 45 43 45 42 43 44
65 64 63 62 62 60 58 55 52 50 50 47 50 46 48 49 40 40 41 47 51 52 52 53 55 49 47 42 42 42 46 49 46 45 45 43 43 44 45 42 41 38 36
62 61 60 60 58 57 56 54 50 48 47 46 47 48 47 48 41 40 39 45 46 49 51 52 52 55 49 52 42 38 38 37 38 46 44 44 43 44 43 41 40 39 38
59 58 58 58 56 55 54 51 46 47 46 47 47 48 48 49 40 39 38 41 47 50 51 52 51 52 53 51 50 48 46 47 43 43 44 45 46 45 43 42 40 39 41
56 56 57 56 56 55 53 51 51 51 50 48 48 49 46 47 40 39 40 48 48 49 51 51 51 51 46 41 47 46 47 46 42 39 39 37 35 35 36 39 36 35 33
54 55 56 56 54 53 52 50 51 51 49 47 44 42 39 41 41 40 41 46 45 46 48 49 42 44 41 38 45 45 42 45 46 44 41 38 36 39 34 37 39 34 34
55 54 53 53 51 50 49 45 43 41 41 43 46 49 49 48 48 40 39 43 43 44 44 46 48 40 37 37 38 43 41 45 42 44 44 44 44 43 43 41 41 40 36
52 50 49 47 47 49 49 50 51 50 48 47 45 46 48 48 42 41 38 37 38 38 40 43 45 40 38 36 37 38 38 35 40 40 39 40 40 41 43 44 43 43 43
50 49 49 49 49 49 49 48 49 48 46 44 43 42 43 44 45 36 35 35 36 35 36 38 36 35 36 36 35 36 35 39 37 36 36 38 40 41 43 42 42 42 41
47 46 47 45 46 46 48 47 46 43 41 40 40 39 39 39 40 37 35 36 34 35 36 38 35 32 33 34 36 39 40 40 38 37 38 40 40 37 38 40 37 37 36
44 43 43 43 43 44 44 41 39 40 35 35 35 35 32 31 33 30 29 31 31 31 30 33 35 36 36 38 37 36 36 39 36 36 36 36 35 33 34 38 37 36 33
42 41 38 40 41 42 41 41 31 31 30 30 29 29 30 29 27 27 28 28 28 29 30 32 33 33 34 36 37 36 36 34 34 34 34 35 33 32 32 35 36 34 33
39 38 38 37 38 37 37 36 35 35 31 29 28 27 27 25 25 25 26 26 28 29 29 29 28 29 31 33 35 36 36 36 35 33 33 34 34 33 31 31 33 33 33
35 30 37 36 36 35 34 33 33 31 29 30 30 27 26 24 23 25 25 27 28 28 27 25 25 26 27 29 31 31 36 37 33 33 33 32 32 32 31 31 32 32 33
35 34 33 33 31 30 31 31 30 29 28 28 29 29 27 22 23 25 25 25 23 23 24 24 24 24 25 26 27 28 30 34 33 33 32 32 32 33 31 32 33 33 32
30 25 27 31 31 29 29 28 28 27 26 26 25 25 24 21 22 23 23 22 22 22 21 22 22 23 23 23 25 27 25 33 32 33 32 31 32 32 32 32 33 32 32
32 29 22 29 28 27 26 25 25 24 23 23 23 22 15 17 21 21 21 21 20 19 19 20 20 21 22 22 22 23 25 28 33 33 32 32 32 31 32 33 33 33 33
27 26 26 24 25 23 22 23 22 22 21 20 21 21 17 20 20 19 20 19 18 19 19 18 18 19 20 20 20 20 22 23 32 32 32 32 32 32 31 31 32 32 32
24 23 23 22 22 18 20 20 19 19 18 18 18 18 18 18 17 17 17 17 18 17 17 17 16 16 19 19 19 19 20 22 24 28 32 31 31 31 31 31 32 31 30
22 21 21 20 18 17 18 16 16 15 15 16 16 16 16 15 15 15 15 16 15 15 15 14 14 16 17 17 18 19 20 21 23 25 32 32 32 31 31 30 32 32 30
21 20 19 18 16 15 14 15 14 14 14 14 14 14 15 14 14 14 14 14 13 13 12 13 15 15 15 14 16 18 18 18 21 24 30 32 31 30 30 30 31 32 30
20 18 17 16 16 14 13 13 13 13 12 12 12 13 13 13 13 12 12 11 11 9 11 13 13 13 14 17 18 17 16 18 20 21 25 31 31 30 30 30 30 31 30

GFSGL_sfc_temp_036.txt.gz
Temp
78 74 69 65 62 63 67 62 59 58 57 57 56 54 53 52 51 49 48 48 48 49 49 48 49 50 51 50 48 47 46 45 41 41 45 46 45 44 46 45 45 43 42
75 68 67 67 67 64 61 61 59 59 58 57 57 55 54 51 50 48 48 50 48 47 47 47 47 51 49 51 49 46 44 45 41 37 41 42 43 44 43 42 46 49 43
77 70 66 64 61 61 59 58 57 56 55 55 54 53 50 48 48 48 49 47 47 47 46 46 47 47 48 48 46 45 44 49 43 40 40 41 41 41 41 42 41 40 46
74 64 64 62 61 59 58 56 53 52 50 49 49 49 48 48 49 49 48 47 46 46 46 47 47 48 46 46 47 47 47 43 45 43 43 42 39 41 39 37 35 37 37
70 68 63 62 61 60 57 56 54 52 50 49 48 47 47 48 49 48 47 45 45 45 45 48 48 48 45 45 47 44 43 42 42 40 39 40 41 37 35 36 34 34 35
67 65 66 64 64 61 58 56 54 52 52 49 47 46 46 49 42 44 45 46 46 45 42 45 46 45 45 43 43 43 44 42 41 40 41 39 40 38 36 34 34 31 29
64 64 63 62 59 57 56 55 52 50 49 47 47 46 45 44 41 41 40 42 41 40 41 42 43 46 44 46 44 42 39 39 40 41 40 40 39 41 36 34 33 33 30
62 61 61 59 57 56 54 51 48 47 46 45 46 46 46 47 40 40 38 39 39 41 41 41 41 42 44 43 42 40 42 43 44 43 39 40 41 42 39 38 35 33 32
60 59 59 57 55 54 51 50 49 48 48 48 49 48 48 43 40 39 39 39 41 41 44 43 41 40 38 38 36 34 36 39 45 43 42 42 41 41 38 36 32 26 22
58 58 59 58 55 52 49 47 48 49 48 48 45 43 41 43 40 38 39 35 33 31 35 38 37 37 37 37 33 32 31 33 35 36 37 40 37 35 37 38 35 28 25
58 58 56 53 50 50 50 48 46 45 44 41 41 43 45 39 36 36 36 31 28 29 30 31 31 36 35 35 35 31 31 34 33 34 34 35 38 34 32 34 35 34 30
54 53 52 51 51 50 47 48 48 46 43 40 38 37 38 36 35 35 34 33 33 28 29 30 31 33 33 34 32 34 34 33 32 32 33 34 36 34 35 36 35 36 36
52 51 50 52 52 52 48 46 45 43 38 34 34 33 34 32 32 33 32 32 32 28 29 31 31 31 32 31 34 35 33 32 30 29 29 32 35 37 34 35 36 35 35
50 49 48 47 47 47 48 46 40 35 33 32 32 31 30 31 27 27 27 26 28 28 27 26 26 28 28 29 30 30 30 30 30 30 30 32 35 35 33 34 32 33 32
48 47 45 44 44 41 37 36 32 31 31 30 29 29 25 24 24 26 26 25 24 26 23 24 26 27 26 26 26 27 27 27 26 27 27 28 28 33 33 34 33 33 31
44 42 38 37 38 41 36 33 33 31 31 30 29 27 27 27 27 27 27 28 28 28 24 23 21 20 21 23 22 23 23 23 25 25 24 26 26 30 32 32 32 31 29
39 39 36 35 35 34 33 32 26 29 31 30 30 29 28 26 26 27 27 28 28 29 21 20 18 19 20 22 21 21 20 22 24 23 22 24 24 30 32 32 31 30 29
36 35 36 35 34 34 32 31 31 30 27 26 29 29 27 26 26 27 27 27 23 25 22 20 18 19 19 20 20 19 20 20 21 20 20 23 23 24 31 30 30 29 29
36 34 33 31 29 29 31 31 30 29 28 27 27 27 25 26 25 27 29 21 18 20 20 20 18 18 18 19 18 18 18 18 18 18 19 20 21 20 30 31 30 29 28
28 28 30 31 29 30 30 28 28 27 26 26 25 24 23 20 16 18 19 16 16 18 18 18 18 17 17 17 16 16 16 16 16 17 18 19 18 19 24 31 30 29 28
27 26 24 29 28 27 26 25 25 25 24 23 22 18 16 18 17 19 18 16 16 16 15 16 15 15 15 15 16 14 14 14 15 16 17 17 16 17 21 31 31 30 29
28 27 27 25 26 24 22 23 23 22 22 21 21 21 19 17 19 17 16 14 13 14 17 14 14 15 15 13 13 13 12 13 14 16 15 15 16 17 19 28 30 30 29
24 24 24 24 23 21 21 22 21 20 19 19 19 19 19 17 16 15 14 10 13 13 12 13 13 11 12 14 14 14 12 13 15 15 14 15 16 17 18 19 29 29 28
23 22 22 22 21 19 19 18 18 19 18 18 17 16 16 15 13 10 10 10 8 8 10 11 9 10 12 12 13 14 15 16 16 16 16 16 16 17 18 19 29 29 28
22 21 20 20 19 18 18 18 17 17 16 15 15 14 14 14 13 12 9 9 7 8 7 7 10 11 10 10 11 13 15 16 16 17 17 18 17 17 19 23 29 29 29
21 20 19 18 18 17 16 15 14 14 14 13 12 11 12 12 11 8 10 7 9 6 5 8 8 8 9 12 14 15 14 15 15 16 18 19 18 18 19 22 28 29 28

GFSGL_sfc_temp_039.txt.gz
Temp
67 69 68 65 65 66 62 60 58 56 56 55 55 53 50 49 50 50 49 49 48 47 48 48 48 48 47 48 45 46 45 43 36 38 40 42 41 41 44 42 43 42 42
65 67 65 61 61 58 59 57 56 55 56 56 54 53 52 51 50 49 48 49 47 46 46 46 47 49 46 47 46 44 43 42 39 36 37 38 40 41 41 39 44 47 42
66 68 61 61 62 59 58 57 56 55 55 55 54 52 51 49 48 48 48 48 47 47 46 45 46 46 45 43 43 42 45 47 42 36 36 37 38 39 41 40 41 40 43
63 61 58 58 57 57 56 55 53 53 52 52 52 51 50 48 49 48 48 46 45 46 46 46 47 45 44 44 43 40 42 40 40 41 42 41 38 40 40 39 37 37 39
61 59 57 57 57 55 54 53 51 51 50 49 48 47 48 47 48 47 47 45 45 45 45 47 47 45 43 43 44 43 42 41 41 41 39 40 39 37 36 41 37 42 35
59 58 58 58 57 56 54 52 51 49 49 48 46 46 45 47 41 42 45 45 45 44 43 42 43 44 44 41 41 41 40 38 37 36 37 36 38 36 37 36 35 32 34
58 58 56 55 53 51 51 52 50 48 44 42 41 41 41 41 41 41 41 42 40 38 38 38 43 45 40 40 38 37 37 38 38 36 36 37 37 39 38 36 31 35 35
56 55 54 53 51 49 47 45 43 42 41 40 41 41 41 41 40 40 38 38 37 39 41 40 37 36 35 36 34 32 33 35 36 37 35 36 36 38 37 39 38 37 32
53 53 53 51 49 47 45 43 42 42 41 41 42 41 41 40 40 38 38 38 40 37 38 36 35 33 36 36 31 29 30 31 37 38 38 38 37 38 38 37 34 32 30
52 52 52 51 49 46 43 42 42 42 43 45 43 43 40 40 38 38 37 30 29 28 31 33 34 33 35 34 30 27 26 27 29 30 31 33 34 34 37 36 37 32 31
53 51 49 48 46 45 43 42 41 40 40 37 38 38 36 34 34 35 34 28 27 27 27 27 27 33 33 33 33 28 28 31 31 30 30 31 31 32 34 33 36 37 32
49 47 47 46 47 46 43 42 42 40 37 34 32 31 31 32 33 33 33 32 31 26 27 26 26 31 31 32 31 33 33 29 28 28 28 29 29 30 32 36 33 35 37
47 46 45 46 46 45 41 38 38 36 32 30 32 30 27 27 26 29 30 30 29 25 26 27 29 29 30 29 31 31 28 26 24 22 23 25 26 29 31 32 35 34 35
44 43 42 41 40 40 40 37 33 29 28 29 29 27 26 23 23 23 25 23 26 26 25 24 24 25 25 25 27 27 26 25 23 21 22 23 25 25 27 30 31 31 29
42 41 39 37 34 32 31 30 28 29 29 26 24 27 22 20 24 26 26 25 21 25 18 17 20 22 23 23 24 24 23 23 20 21 21 21 21 22 24 27 29 32 28
39 36 32 31 32 32 30 29 32 31 32 31 30 27 27 27 27 27 28 28 29 29 22 15 12 12 16 20 19 19 19 18 19 20 20 19 18 19 22 23 26 31 31
34 35 32 32 32 30 29 28 25 29 31 31 30 30 29 27 27 28 28 28 29 26 17 16 10 8 13 18 18 17 16 17 19 18 17 17 18 19 19 20 22 29 29
33 32 32 31 30 29 29 29 27 26 24 25 29 29 28 27 27 28 28 28 20 22 20 16 12 12 15 16 16 15 15 15 15 16 15 15 16 17 16 17 18 26 28
32 30 28 27 27 28 28 28 28 27 27 26 25 25 24 25 26 25 26 17 15 16 18 17 13 13 14 14 9 8 10 12 13 12 13 14 15 16 15 16 18 22 28
27 27 27 27 26 26 26 26 26 25 25 24 23 22 21 18 11 10 13 10 11 14 13 14 14 13 8 10 7 6 10 11 11 12 12 13 15 14 14 15 16 15 28
24 25 25 25 24 24 23 23 23 23 22 22 20 17 18 18 16 15 17 11 12 12 7 11 7 3 3 8 10 8 10 10 10 11 11 13 13 13 15 16 16 17 29
24 23 23 22 23 21 20 22 22 21 20 19 19 18 18 14 16 16 14 8 7 8 10 7 4 7 8 7 8 9 8 8 9 11 13 11 13 14 15 16 16 17 25
22 21 22 22 21 20 19 20 18 17 17 16 17 16 16 12 12 13 10 2 6 4 2 1 -0 2 4 5 9 9 9 9 11 13 12 11 13 14 15 15 16 17 20
21 20 21 20 18 17 16 14 14 16 16 14 12 11 12 9 5 3 5 3 2 -5 -6 -5 -2 1 7 6 5 9 11 12 14 13 13 13 13 14 15 16 17 18 21
19 18 17 17 14 13 12 13 12 11 11 9 8 7 7 4 2 -0 -4 -2 -4 -4 -4 -4 -5 1 2 3 5 8 11 12 12 13 13 12 14 16 16 17 18 19 22
18 17 15 14 12 10 8 6 5 3 3 3 -0 -4 -4 1 -1 -6 -4 -5 -2 -5 -5 -6 -2 -0 1 6 9 11 9 11 11 12 11 14 14 15 16 17 18 19 23

GFSGL_sfc_temp_042.txt.gz
Temp
65 66 66 65 65 63 60 59 57 57 57 55 54 53 52 51 51 50 50 49 49 48 48 48 47 48 46 46 46 46 45 43 40 38 38 41 39 40 42 41 41 41 43
67 66 62 60 59 59 59 58 58 58 57 56 54 54 53 51 51 49 48 49 48 47 46 46 46 49 46 46 45 44 44 44 42 40 37 36 37 39 39 37 43 45 43
64 63 61 61 60 61 60 59 59 59 58 55 55 53 51 51 49 48 49 48 48 47 46 46 46 45 44 44 43 43 43 43 39 34 39 36 36 37 39 41 40 42 46
62 62 62 60 61 62 62 59 57 56 54 54 53 52 50 49 49 49 48 47 46 46 46 46 46 46 44 43 43 41 42 39 39 39 39 38 37 40 37 40 41 42 41
63 62 62 60 61 59 56 55 54 53 52 52 51 50 48 48 48 47 47 45 45 44 45 46 46 46 43 42 42 41 39 39 39 38 37 36 39 38 36 37 37 39 39
60 60 59 57 57 55 53 51 50 50 49 48 47 46 46 47 41 42 45 45 45 44 43 43 43 43 43 39 38 38 36 32 30 29 30 31 32 32 34 33 35 35 33
57 57 56 55 54 52 52 50 49 47 46 45 44 45 44 44 41 41 41 44 42 41 39 40 41 42 39 38 35 35 34 36 35 30 28 29 30 32 35 34 34 34 33
53 52 52 51 51 50 48 45 43 43 43 40 39 40 41 41 39 39 38 38 36 38 39 38 37 36 35 33 31 29 30 31 31 33 29 30 30 32 32 32 31 32 35
51 51 50 49 48 46 44 42 41 41 40 39 40 39 39 38 39 38 37 35 35 34 36 37 35 31 35 35 30 28 28 29 34 35 35 35 35 35 35 32 28 28 26
49 48 49 48 46 43 41 40 40 40 40 41 39 38 37 36 37 38 38 35 32 31 31 31 33 31 33 33 28 26 25 26 27 28 29 30 32 32 34 32 30 28 29
49 48 47 46 44 43 41 41 40 39 38 36 34 35 35 35 35 35 34 30 28 28 27 27 27 31 32 32 33 28 28 28 27 26 26 26 27 29 29 30 30 30 28
47 45 44 44 45 43 41 41 41 39 34 31 30 29 30 30 33 33 33 31 30 27 27 27 27 30 31 31 30 32 31 27 24 23 22 23 23 24 25 26 28 30 33
45 44 44 44 43 42 39 38 36 35 32 30 28 26 24 25 25 30 30 29 28 26 27 28 28 29 29 28 30 29 25 24 21 19 19 21 22 23 24 24 26 28 30
42 41 39 37 36 35 35 35 32 29 29 30 28 26 24 23 24 25 25 25 26 26 26 25 24 25 24 24 25 26 25 23 21 19 19 20 22 21 20 22 22 24 24
39 37 34 33 32 30 29 29 29 30 30 28 27 27 22 21 25 27 27 26 23 26 21 19 21 21 21 22 22 22 21 21 18 18 17 17 17 18 19 21 21 21 20
35 33 30 30 30 30 29 28 32 32 32 31 30 27 26 28 28 28 28 28 29 28 22 18 14 12 15 18 17 17 17 16 17 17 15 15 14 15 15 18 19 19 19
32 32 30 30 29 29 29 28 25 29 31 31 31 29 27 27 28 28 28 28 28 26 19 17 11 10 13 17 16 15 14 15 16 13 13 12 13 14 14 15 16 17 17
32 31 30 30 30 29 29 27 27 26 24 24 28 29 28 27 27 27 28 27 22 22 20 17 15 15 15 15 14 13 12 11 10 12 10 10 11 12 13 13 15 15 16
29 28 28 27 27 27 27 27 27 26 25 25 25 25 25 25 25 25 24 19 18 17 17 17 15 14 14 13 7 3 -3 4 8 1 8 10 9 11 11 12 14 15 15
27 27 27 26 26 25 25 24 24 24 23 23 22 21 21 20 15 15 15 14 15 15 14 15 14 12 9 8 -0 -6 -2 6 6 7 8 8 9 10 10 11 13 13 15
25 25 24 24 24 23 22 22 22 21 21 20 19 18 19 19 17 17 17 14 13 14 11 12 8 5 2 -0 5 -1 5 3 6 7 7 9 10 9 11 12 14 15 16
23 23 23 22 21 20 20 21 20 20 19 18 18 18 18 16 17 16 15 12 10 12 12 6 5 4 3 3 4 4 5 3 6 8 8 10 10 10 11 12 13 14 15
21 20 21 21 20 18 18 18 17 17 17 16 16 15 15 13 12 12 11 7 10 3 1 0 -7 -3 -0 -3 -3 4 5 6 8 9 9 9 9 10 11 12 13 14 15
20 19 19 18 17 17 16 14 15 15 14 12 11 11 10 8 5 5 3 2 -3 -7 -10 -11 -7 -4 -1 -3 -5 3 8 9 11 9 9 9 8 9 10 13 14 15 16
18 17 16 15 14 13 12 12 10 9 7 6 5 3 3 -1 -4 -9 -10 -11 -7 -12 -9 -8 -8 -5 -3 -4 -2 2 6 5 6 9 9 8 8 8 11 13 14 15 16
15 14 14 13 11 10 9 8 6 4 3 -0 -4 -9 -8 -8 -7 -14 -12 -9 -9 -9 -8 -8 -6 -4 -3 -0 3 7 2 4 5 7 7 8 8 10 11 12 12 14 15

GFSGL_sfc_temp_045.txt.gz
Temp
61 61 62 62 62 61 61 62 58 56 56 57 56 55 54 54 51 51 50 49 51 49 49 50 48 48 46 46 45 45 44 43 39 42 43 43 41 39 41 40 40 39 40
62 62 61 62 62 61 60 60 58 58 58 57 56 54 52 51 51 51 49 49 49 48 48 47 46 47 45 45 45 44 43 43 41 39 41 40 40 39 38 37 41 43 39
63 62 61 61 61 61 62 61 60 61 59 59 58 56 54 53 51 50 50 49 48 48 47 46 46 46 44 43 43 43 43 44 40 37 38 36 35 35 36 37 37 37 42
64 62 61 61 61 62 61 62 61 59 59 59 56 55 53 51 51 49 48 47 47 47 46 47 46 45 44 43 43 41 41 38 38 37 38 37 36 36 37 38 39 40 40
63 62 62 62 63 61 60 60 59 59 58 55 53 52 50 49 49 48 47 46 45 45 45 46 45 45 42 41 42 38 37 34 33 32 31 33 30 30 30 32 34 35 37
63 61 61 57 57 57 56 55 53 52 51 52 50 48 47 48 44 42 45 45 45 44 43 43 43 41 39 38 38 37 34 30 27 26 27 26 26 27 29 30 30 30 29
59 58 57 56 56 54 53 52 50 48 47 47 46 47 46 44 41 41 41 44 43 42 41 41 41 40 38 36 35 34 33 34 34 28 24 24 24 26 27 27 27 27 27
57 56 55 54 51 50 50 48 46 46 45 44 44 44 44 43 40 39 39 40 40 40 39 38 36 35 35 34 32 30 29 30 30 31 27 26 27 29 28 29 29 30 31
52 52 52 51 50 49 46 45 43 43 42 42 43 42 42 40 38 38 38 38 36 35 36 35 34 33 34 35 30 28 28 29 33 34 34 33 34 34 33 30 29 27 26
50 50 50 50 48 45 42 41 39 39 39 39 36 36 37 36 38 38 36 33 31 30 32 32 33 32 32 32 27 26 25 26 26 26 26 28 29 29 32 29 27 22 23
47 47 47 47 45 42 40 40 38 38 36 35 33 34 35 35 35 36 36 33 31 30 30 29 28 31 31 32 32 27 27 26 26 24 24 24 25 25 25 26 26 23 21
46 44 43 43 43 41 39 38 38 36 34 32 30 29 30 31 33 33 33 32 32 29 27 26 26 30 31 31 29 31 29 25 22 21 21 21 21 22 24 24 25 25 25
43 42 41 41 40 39 38 36 34 34 32 31 29 27 26 27 29 31 31 30 29 27 27 28 29 29 29 28 29 28 25 23 20 17 18 19 20 22 23 22 23 24 25
41 38 37 35 34 34 34 34 32 32 32 30 28 26 25 25 24 24 25 25 27 27 26 26 25 26 25 24 25 25 24 22 19 18 17 18 20 19 18 20 18 19 19
36 34 32 31 31 31 31 32 30 30 31 29 27 26 22 22 24 27 26 26 25 26 23 23 21 21 20 21 21 21 20 20 18 17 15 15 15 16 15 18 18 18 15
32 31 30 30 29 30 29 29 32 32 32 31 30 28 27 28 29 29 28 29 29 27 23 18 13 11 16 18 17 17 17 16 16 15 14 13 12 11 12 14 16 14 13
31 31 30 30 29 27 27 27 24 29 31 31 30 29 29 28 29 29 29 29 28 25 18 16 11 11 14 17 16 15 14 15 14 13 11 10 9 10 10 11 13 13 13
32 31 31 30 30 29 28 28 28 26 23 24 27 28 28 27 27 26 26 26 21 22 20 16 14 15 15 15 15 13 12 11 9 9 8 6 5 8 8 10 11 10 11
30 28 28 27 27 27 27 27 27 26 25 24 24 24 24 24 23 23 23 20 18 17 17 16 15 14 14 13 11 8 5 3 2 -1 -1 2 1 6 7 9 9 10 11
27 26 26 26 25 25 25 24 24 24 23 23 22 21 20 19 16 15 15 15 16 16 15 16 15 13 11 10 5 1 -1 -2 -1 -1 1 -3 0 7 8 8 9 9 11
24 24 24 23 22 22 22 22 21 21 20 20 18 18 19 18 17 16 16 14 14 14 12 13 11 8 6 5 6 1 -1 -1 1 3 4 6 6 7 9 9 9 11 13
23 22 21 20 20 20 20 20 19 19 18 18 18 18 17 16 15 15 14 10 10 12 11 8 6 5 4 2 -0 -7 -3 -5 -3 3 5 6 8 8 8 8 8 9 12
21 20 19 19 19 18 17 17 17 16 15 15 14 13 13 10 10 10 9 7 8 5 3 2 -3 -3 -2 -6 -7 -4 -1 3 5 6 5 5 6 6 7 6 7 9 12
18 18 18 16 16 16 15 13 14 13 12 9 7 7 6 4 1 1 -2 -6 -6 -8 -11 -12 -8 -5 -4 -6 -8 -4 3 5 6 3 2 5 5 6 6 6 7 11 12
16 15 14 12 11 9 9 8 6 6 6 4 1 -1 2 -1 -3 -10 -15 -13 -11 -13 -7 -9 -11 -8 -7 -7 -6 -4 1 -1 -2 2 4 5 4 4 5 7 8 10 11
13 11 10 9 8 7 5 2 -0 -2 -3 -4 -7 -8 -4 -6 -9 -16 -14 -12 -12 -12 -11 -11 -9 -7 -6 -4 -2 3 -3 -2 -2 2 3 3 4 4 5 6 7 8 9

GFSGL_sfc_temp_051.txt.gz
Temp
62 62 62 62 62 62 61 61 62 62 62 63 64 64 64 64 64 62 63 62 56 57 57 55 55 55 52 52 51 49 48 48 46 45 49 48 50 53 51 52 53 55 56
62 62 60 61 61 61 60 62 62 62 61 62 63 64 64 64 64 61 59 56 55 54 54 52 53 51 51 50 49 46 46 48 45 43 48 46 45 47 48 51 53 54 54
63 62 61 60 60 60 61 62 63 63 63 64 63 62 63 61 62 60 60 55 53 55 56 53 52 50 48 47 46 46 45 45 44 42 42 43 44 45 50 51 50 50 52
63 62 61 61 61 62 62 63 63 64 64 65 64 64 63 62 61 58 57 58 57 56 55 51 50 49 48 45 44 44 43 41 41 41 41 41 43 48 47 46 45 47 46
63 63 62 62 63 64 63 64 63 63 64 65 64 64 64 62 57 56 55 53 53 51 50 48 48 47 44 45 45 43 42 40 40 38 38 37 42 41 43 44 41 43 43
64 62 64 64 63 63 64 63 64 64 64 63 63 62 60 57 48 46 50 52 52 47 45 44 44 42 40 39 39 39 43 39 36 35 38 40 42 40 42 39 38 37 37
64 64 64 64 63 63 64 64 64 64 64 62 61 59 56 55 44 44 43 48 47 46 43 41 41 40 39 38 35 35 35 35 37 39 39 39 37 40 38 36 37 37 37
64 64 64 64 63 64 63 62 62 61 59 56 53 51 49 47 41 41 41 44 43 43 43 41 39 37 37 35 34 34 34 35 35 38 39 39 40 39 37 37 36 36 38
63 63 63 63 63 62 60 53 50 49 47 46 46 45 44 41 39 38 40 39 37 36 37 37 36 35 35 36 34 33 33 33 35 33 33 32 32 32 33 35 34 32 30
62 62 61 61 55 52 49 46 44 43 41 40 38 39 38 38 37 38 38 36 33 32 33 33 33 32 32 33 33 34 32 34 34 35 36 34 33 34 30 34 34 28 29
54 54 53 53 49 46 43 43 41 38 36 34 33 34 35 36 36 37 37 36 33 31 30 30 30 32 33 33 34 34 32 35 29 32 32 32 32 32 32 32 32 30 28
48 46 45 45 45 43 41 39 38 36 33 32 30 30 31 32 34 35 35 34 34 31 30 30 30 32 32 32 33 30 28 30 30 29 27 28 28 28 29 30 30 30 31
44 43 43 43 41 41 38 36 35 35 33 32 30 28 28 30 30 32 32 32 31 30 30 31 31 32 31 30 29 28 27 28 27 26 25 26 27 27 27 27 27 28 29
40 38 38 37 36 36 37 36 35 33 32 32 31 29 28 28 28 29 29 30 29 30 30 30 29 28 28 28 28 28 28 27 25 24 24 24 25 24 23 24 22 23 23
37 36 35 35 33 32 32 33 33 35 37 36 33 32 28 26 27 29 29 28 28 27 28 29 28 27 26 27 26 25 25 25 24 23 21 20 20 21 20 21 21 22 19
37 37 36 35 35 34 31 29 31 32 31 31 30 29 28 29 29 29 28 28 28 27 26 24 23 23 24 25 24 23 22 20 20 19 17 18 17 18 17 19 20 19 18
35 35 34 34 33 31 30 29 26 28 30 29 29 29 29 28 29 30 29 28 28 27 25 22 21 20 20 21 21 20 18 19 17 17 16 16 16 16 15 16 17 17 17
30 30 30 29 29 28 27 27 28 27 26 27 28 29 28 28 28 28 27 26 24 24 23 22 20 20 20 20 19 18 17 16 16 15 15 15 14 14 14 14 16 15 17
28 28 28 28 28 29 30 29 28 28 26 25 24 24 25 26 25 25 25 24 23 23 22 22 21 19 19 18 16 15 14 14 13 12 13 13 13 13 13 14 14 13 13
26 26 26 27 26 26 26 26 26 26 25 24 23 22 24 24 22 21 21 21 21 20 20 19 18 17 16 16 14 14 13 13 13 13 12 12 12 12 12 12 13 13 14
25 24 23 23 23 23 23 22 23 22 22 21 20 20 19 21 19 19 18 17 17 17 16 16 15 14 14 14 13 12 11 10 10 10 10 11 10 10 12 13 12 13 14
24 23 22 21 22 22 22 22 22 21 20 18 17 16 16 18 17 16 15 14 14 14 15 13 13 12 12 10 9 8 7 7 8 9 9 9 10 10 10 11 11 12 12
23 21 21 20 20 19 19 19 18 17 16 16 16 15 15 14 13 13 11 11 12 11 10 10 9 8 9 8 8 7 5 6 7 8 8 7 8 8 9 9 10 10 11
20 19 17 16 16 16 15 14 14 12 13 13 13 12 11 10 10 8 8 8 9 9 8 6 6 4 5 5 6 7 7 7 7 8 6 5 6 7 8 8 9 9 10
16 14 13 13 12 11 11 10 10 10 10 9 9 9 9 9 8 8 7 6 4 5 5 4 4 4 3 1 1 2 3 2 4 3 4 5 5 5 6 7 8 9 9
12 11 11 11 10 10 9 8 7 7 6 6 6 6 6 6 7 5 4 4 3 3 3 4 3 2 1 3 3 2 -0 -1 0 -1 1 4 4 5 7 7 7 8 9

GFSGL_sfc_temp_057.txt.gz
Temp
74 72 69 69 68 68 70 72 73 73 73 73 73 72 72 72 72 71 70 70 70 70 70 70 69 70 68 65 62 59 57 55 51 53 50 50 47 46 48 49 53 53 53
77 75 72 72 72 70 70 72 73 73 74 74 74 74 73 73 73 72 70 71 70 69 69 68 68 68 66 63 61 57 56 55 52 50 47 44 45 46 49 48 52 55 55
77 76 74 73 73 72 72 73 74 73 73 73 74 73 73 72 72 72 71 71 70 70 69 68 68 66 62 61 57 54 55 52 51 46 43 43 46 46 46 47 49 50 55
78 76 74 73 73 73 73 73 73 73 73 73 73 73 72 73 73 73 73 72 71 69 69 66 64 66 61 59 57 55 53 49 46 45 43 41 45 44 45 45 44 49 50
78 77 75 73 74 73 73 73 73 72 73 73 72 72 72 72 72 71 71 70 67 65 66 69 68 64 54 56 57 55 50 46 45 43 41 40 40 40 41 44 43 45 48
77 77 78 76 74 73 73 72 72 71 72 72 71 71 70 72 57 51 60 69 66 63 62 65 65 51 48 44 44 44 48 45 42 41 41 39 41 42 43 42 42 40 42
79 78 77 77 75 73 73 73 72 71 72 71 70 70 70 71 50 46 46 67 66 65 64 62 51 47 45 44 38 36 36 36 40 42 40 39 39 42 42 41 41 41 42
79 78 78 77 75 75 73 73 71 71 70 70 70 70 69 69 47 45 44 61 62 57 55 51 45 41 41 40 38 36 35 34 34 37 36 37 37 40 41 43 42 43 44
80 79 78 77 76 75 73 72 71 71 70 69 69 68 63 58 43 43 44 44 41 39 40 41 39 37 37 39 35 33 31 31 33 34 34 34 34 34 34 38 38 37 36
82 81 80 79 77 74 73 71 71 69 63 50 42 42 39 41 41 42 43 39 35 33 34 35 35 34 34 35 34 32 29 28 30 31 32 33 34 34 33 35 37 34 34
80 81 79 78 76 75 74 72 56 48 41 37 35 35 36 37 37 38 38 35 33 32 32 31 32 33 34 34 34 32 30 30 30 34 35 36 38 39 39 37 38 36 32
69 69 61 60 58 55 50 46 44 40 36 34 33 32 33 34 34 35 35 34 34 31 30 31 31 32 32 31 30 31 31 32 34 34 34 35 35 36 38 38 37 37 38
54 50 46 45 45 44 42 39 37 37 34 33 32 29 29 31 31 32 33 32 32 30 31 31 31 30 29 28 28 30 32 32 31 30 31 32 32 34 34 33 34 35 35
40 39 39 37 37 38 38 38 36 34 34 32 30 28 28 28 29 30 30 31 31 30 29 29 28 28 27 27 28 29 30 30 29 27 27 29 30 30 29 30 28 28 25
35 34 33 33 32 30 31 32 32 33 33 31 29 29 26 26 28 29 29 28 28 28 28 28 28 28 28 29 29 28 28 29 27 27 26 26 26 26 26 28 26 26 23
32 32 31 30 30 30 29 28 31 31 31 30 30 29 29 30 30 30 30 30 30 30 31 30 29 29 28 28 27 27 28 26 25 25 24 24 23 23 23 24 25 23 22
32 32 30 30 29 28 28 27 25 28 30 30 30 30 30 29 29 29 28 28 28 30 28 27 26 26 25 26 26 26 24 24 24 23 23 22 22 22 21 22 23 23 22
30 30 30 30 29 29 28 27 27 26 24 24 28 28 29 29 29 28 28 29 27 27 26 25 24 24 25 24 23 23 22 22 22 22 21 21 20 20 19 19 20 20 20
29 30 31 30 29 29 28 27 26 25 24 24 25 25 27 27 27 27 27 26 24 24 24 23 23 23 23 23 22 22 21 21 20 19 19 19 18 18 17 18 18 17 17
29 29 29 28 29 29 28 27 26 25 25 25 24 26 27 26 23 22 23 23 23 23 24 23 23 23 22 22 21 20 20 19 19 18 17 17 17 16 15 16 16 15 16
28 28 28 29 30 29 29 27 26 24 22 21 21 24 25 24 22 22 21 21 21 22 21 22 22 21 21 20 19 18 17 16 16 16 16 16 15 14 15 15 15 15 15
27 27 27 27 27 27 27 27 26 24 23 21 21 22 23 23 23 22 20 19 20 20 21 19 19 19 18 17 16 15 14 14 14 14 13 13 13 14 14 13 13 13 14
27 26 26 26 25 24 24 24 23 23 23 23 22 21 21 20 19 19 18 18 18 17 17 17 16 15 16 15 15 14 13 13 13 12 11 11 11 12 12 11 11 11 12
26 24 23 23 23 24 23 22 21 21 21 20 20 19 19 18 17 17 16 16 16 16 16 14 14 13 12 12 13 13 13 12 11 10 9 9 9 10 10 10 10 11 11
23 22 22 21 21 21 20 20 19 19 19 19 18 18 18 18 17 17 16 15 13 13 13 13 13 13 12 10 9 10 9 6 6 4 5 7 7 7 8 9 10 11 12
20 20 20 20 19 19 18 17 17 17 17 17 16 16 16 16 15 14 14 13 11 10 12 13 12 11 10 11 11 7 4 2 3 3 4 5 5 7 8 10 10 9 10

GFSGL_sfc_temp_060.txt.gz
Temp
64 63 62 63 64 64 64 64 64 65 65 65 65 65 65 65 66 65 64 64 64 63 63 63 63 63 62 61 60 60 59 57 54 56 51 50 46 48 49 49 50 49 49
69 64 62 63 63 63 63 65 66 65 66 66 66 67 66 66 66 65 64 66 64 62 63 62 62 64 61 62 61 59 57 56 55 53 52 45 46 47 48 46 49 52 51
73 69 65 63 63 63 63 65 66 67 67 68 68 67 67 66 66 66 66 65 64 64 64 63 63 62 61 61 61 60 58 56 55 53 52 43 44 45 45 46 46 49 53
74 72 68 66 65 65 66 66 66 68 67 68 68 68 68 69 69 68 68 66 65 66 65 65 65 64 62 62 59 59 57 54 53 52 49 41 43 43 44 43 42 45 46
71 73 71 70 69 68 67 67 67 67 68 68 68 68 68 68 69 67 67 65 64 64 64 65 65 62 55 57 59 58 55 53 52 49 46 39 40 39 40 42 40 41 43
73 72 74 72 71 69 69 68 68 67 68 68 67 67 66 68 58 51 59 65 65 64 63 63 62 52 52 48 47 49 53 53 50 46 46 42 42 39 40 39 38 36 35
75 74 74 73 72 70 70 69 68 67 67 66 66 66 65 66 51 49 48 64 63 62 61 60 58 53 49 47 37 37 36 36 38 45 41 37 36 38 38 36 36 35 35
77 76 75 74 73 72 70 68 67 67 66 65 65 65 64 65 49 48 46 58 61 61 57 56 59 47 44 41 37 34 34 34 35 37 35 33 33 35 36 37 37 37 37
70 76 77 75 73 72 70 68 68 66 65 64 65 63 63 62 41 44 45 50 43 38 38 39 39 38 38 40 36 33 31 30 33 33 33 33 33 34 35 35 32 31 30
60 65 69 77 74 72 70 68 67 66 64 57 43 41 39 41 39 40 44 40 35 33 33 33 34 34 35 36 33 32 28 28 28 29 31 33 34 34 35 34 32 29 29
53 59 57 57 69 71 69 67 64 51 41 37 35 35 35 36 37 39 39 36 34 32 32 31 32 34 34 34 33 30 29 30 29 30 29 29 30 30 32 34 35 32 28
48 53 50 48 50 50 48 45 44 41 37 34 33 32 32 33 35 35 35 34 34 32 30 31 32 33 33 32 31 31 31 30 30 28 28 28 29 31 31 32 32 32 32
41 41 41 41 41 42 41 39 37 36 34 32 31 29 29 31 32 33 33 33 32 30 30 30 30 30 30 30 30 30 29 28 28 27 26 26 27 27 30 30 30 31 30
35 34 34 32 33 35 37 38 36 34 32 31 30 28 28 28 29 30 30 30 29 28 27 27 26 27 27 27 27 26 26 26 26 25 25 26 27 26 26 27 25 25 24
33 32 31 31 30 30 30 30 30 31 32 30 28 29 27 26 28 30 28 28 28 28 28 28 27 27 26 25 26 26 26 25 23 23 23 23 24 24 24 25 24 23 19
30 30 29 29 29 29 29 28 31 31 31 31 31 30 30 31 31 31 31 31 31 31 29 27 26 25 24 25 24 23 23 22 22 23 21 21 20 19 19 19 21 19 19
30 30 29 28 28 27 27 27 24 27 30 30 30 30 30 30 30 31 31 30 30 29 24 23 23 22 22 23 22 21 20 21 22 19 18 16 16 16 15 17 17 17 16
30 29 29 28 27 26 25 25 24 23 22 23 28 28 29 30 30 29 29 28 23 24 23 21 20 21 21 21 20 20 19 19 17 16 12 12 12 13 12 14 14 11 14
28 28 28 28 27 27 26 25 25 24 23 23 23 24 25 27 27 27 27 23 21 20 21 20 20 20 20 19 18 17 14 12 11 9 11 11 5 10 8 11 12 11 11
27 27 28 27 26 25 24 23 22 21 21 21 22 22 23 22 19 19 21 20 19 19 20 20 19 18 17 16 15 13 12 10 10 9 5 4 4 7 6 8 8 9 11
25 25 26 25 25 25 23 22 21 20 19 20 20 21 22 20 18 18 17 17 17 17 16 17 17 16 15 13 14 10 9 8 7 6 8 7 0 3 8 9 10 11 11
25 25 25 24 24 23 23 23 22 21 21 20 19 20 20 19 17 16 16 15 15 14 15 14 13 13 12 10 8 3 4 2 4 5 3 3 5 7 8 5 5 5 8
24 23 23 23 22 20 19 21 21 20 19 18 18 17 17 15 14 14 12 12 13 12 11 10 9 7 8 5 7 8 4 6 7 3 -1 1 5 5 2 2 6 6 6
22 22 21 20 19 19 19 18 18 18 18 17 16 15 15 14 13 11 10 8 7 10 9 5 8 6 4 2 3 4 8 4 4 4 -1 -3 -0 3 3 4 5 4 6
19 19 18 18 17 17 16 16 16 16 15 14 14 14 14 14 12 11 8 10 7 5 5 5 4 4 5 1 1 2 -1 -5 -6 -5 -4 -1 -1 -2 1 4 5 7 5
17 17 16 16 15 15 14 13 13 13 12 12 12 12 12 11 9 9 8 5 1 1 5 3 6 3 2 4 4 -1 -5 -4 -5 -1 -4 0 -1 0 3 3 2 4 5

GFSGL_sfc_temp_063.txt.gz
Temp
60 62 62 61 62 62 61 61 61 62 62 62 62 62 62 62 63 63 64 64 61 62 62 61 60 62 60 60 58 60 58 58 55 58 53 52 50 51 50 50 51 51 51
60 60 60 62 62 62 62 62 62 61 62 62 63 62 63 63 63 63 62 64 61 60 61 60 60 61 59 60 59 58 59 59 57 56 58 49 49 47 48 47 49 51 50
62 60 59 60 61 62 62 63 64 63 62 62 62 62 63 63 63 63 63 63 63 62 62 60 61 60 59 59 59 59 58 58 58 56 57 48 49 45 45 46 47 48 51
64 61 59 59 60 60 62 63 63 64 62 62 63 63 63 63 64 64 64 63 62 63 62 62 61 61 60 60 58 57 58 57 56 55 55 47 44 44 47 45 43 46 46
65 65 61 61 61 61 61 62 63 63 63 64 63 63 63 63 65 63 63 63 62 62 62 62 62 60 55 58 61 59 57 56 57 56 53 44 43 39 42 44 44 43 44
65 66 67 64 62 61 61 61 62 62 62 63 63 64 63 65 56 50 58 63 63 62 61 61 61 52 52 48 48 50 56 56 56 54 53 50 47 45 43 41 39 37 36
62 65 67 67 65 64 64 63 62 62 63 62 63 64 64 64 51 48 48 64 62 61 60 60 60 59 52 56 39 39 38 39 38 53 54 48 39 39 40 37 36 35 34
54 54 57 59 64 67 65 64 64 64 63 63 63 63 63 64 50 48 45 57 62 63 62 60 60 57 51 45 38 34 33 33 34 36 34 32 33 35 36 36 34 34 34
47 49 52 56 54 54 63 64 65 64 64 63 63 63 63 63 46 46 46 55 57 40 38 40 42 42 39 40 35 31 30 30 33 34 33 32 33 33 33 33 30 30 29
44 46 49 52 49 49 50 56 65 65 63 62 48 42 39 44 38 41 44 47 36 33 33 34 35 36 36 36 33 31 28 28 29 29 30 31 32 32 31 30 30 28 28
44 46 46 45 44 45 45 45 58 54 41 38 36 36 36 37 38 40 41 41 37 33 32 32 33 34 35 34 34 31 29 30 29 29 29 29 29 29 29 29 30 29 27
41 40 38 38 38 40 41 41 42 41 39 37 35 33 32 33 35 35 36 35 35 32 31 32 32 33 33 33 32 32 31 30 29 28 28 27 26 27 27 28 28 28 29
37 35 34 34 34 34 33 35 37 38 36 34 33 31 30 31 32 33 33 33 32 31 31 31 31 31 31 30 31 30 29 28 27 26 25 24 26 27 28 28 28 29 30
33 32 32 31 31 31 32 32 31 33 33 32 31 29 29 29 28 29 29 29 29 28 27 28 27 26 26 26 26 27 26 26 25 24 23 24 25 25 24 26 24 24 24
31 30 30 30 30 29 29 29 29 30 31 29 30 30 28 26 27 29 29 28 27 27 28 27 25 25 24 24 24 23 23 23 22 22 21 21 22 22 22 23 23 21 17
29 28 28 27 28 28 28 27 30 31 31 31 31 31 30 31 31 32 31 31 31 30 27 24 23 23 23 22 20 20 21 21 21 21 20 19 18 18 17 18 18 15 13
27 27 27 26 26 25 25 25 23 26 29 30 31 31 31 30 30 30 29 28 28 26 22 21 21 20 20 20 19 19 18 19 20 18 17 15 15 15 14 14 14 14 13
27 27 26 25 25 24 24 23 23 21 20 21 26 27 28 28 28 27 26 24 20 22 20 19 18 18 19 18 19 18 17 15 14 14 12 10 9 11 11 11 12 7 11
26 26 26 25 24 23 23 22 22 22 21 20 21 21 22 25 25 25 24 20 18 18 18 17 17 17 17 16 14 13 13 10 8 5 6 8 4 8 6 8 8 7 7
24 25 25 24 23 22 21 20 20 20 19 19 19 19 19 19 16 16 16 16 16 17 17 16 16 14 13 12 10 6 8 6 7 8 0 -0 -4 2 2 3 3 2 8
23 23 23 23 23 22 21 20 19 19 18 17 17 18 19 16 14 14 13 12 12 13 13 13 11 10 9 8 9 6 3 3 5 3 2 2 -8 -1 4 3 2 6 8
23 23 22 20 20 20 21 21 19 18 18 16 15 16 16 15 13 13 12 10 10 11 11 9 9 8 7 7 6 -1 2 1 -2 -2 -3 -3 -1 -1 0 -2 -3 -4 2
20 19 20 20 20 18 17 18 16 15 14 14 14 14 13 11 11 10 9 10 10 9 9 7 5 3 4 3 3 1 2 1 -2 -8 -9 -9 -5 -6 -8 -6 -2 -3 -3
18 17 17 16 15 15 13 13 14 13 13 12 11 11 10 10 8 5 4 2 4 1 1 5 3 3 0 -4 -6 1 -1 -9 -5 -6 -12 -13 -8 -2 -6 -4 -2 -4 1
14 13 13 13 12 10 10 10 10 9 9 8 8 7 9 8 8 3 -1 -5 -4 -4 3 3 -0 -3 -6 -4 -5 -6 -7 -7 -12 -9 -10 -9 -11 -13 -9 -3 -1 2 -3
13 11 10 9 7 7 2 -0 2 3 -0 -2 -0 5 0 -4 1 0 -6 -5 -4 -1 -3 -5 -3 -3 -0 -0 -3 -5 -8 -7 -9 -9 -13 -8 -11 -9 -9 -8 -5 -3 -0

GFSGL_sfc_temp_069.txt.gz
Temp
59 60 58 58 56 56 55 55 55 55 55 56 60 61 60 60 61 60 60 60 58 60 59 57 59 61 59 59 57 57 56 56 54 58 54 53 51 54 54 53 54 53 54
59 59 58 57 58 58 57 58 56 56 56 57 56 58 61 62 62 60 60 60 58 57 58 57 58 60 58 59 57 57 57 58 56 55 58 55 50 55 55 52 53 54 54
57 58 58 56 57 57 58 60 60 59 58 57 58 57 59 59 61 61 61 61 60 59 59 58 58 58 57 58 58 58 58 57 57 55 56 58 56 48 49 48 50 51 52
59 58 56 57 57 57 58 58 58 59 60 59 58 59 59 59 60 60 59 59 59 60 60 60 60 59 59 59 58 58 58 57 56 55 55 55 56 52 46 51 52 49 51
55 56 57 58 59 59 59 58 59 58 59 60 60 60 60 59 60 59 60 60 59 59 60 60 61 59 55 57 60 59 57 56 55 55 55 55 56 50 48 54 50 54 54
48 49 51 53 57 57 59 59 59 59 60 60 59 59 59 61 53 48 53 59 60 59 58 59 60 52 52 48 47 50 57 56 54 55 56 55 56 56 55 52 53 49 47
45 46 47 48 50 50 51 53 56 58 59 59 59 60 59 60 50 47 46 58 59 58 58 58 59 59 52 58 48 44 45 45 48 58 56 56 56 56 57 52 51 52 48
42 43 44 44 44 45 47 48 47 48 49 53 58 59 59 61 50 47 46 55 57 58 58 58 57 58 58 56 55 53 49 48 39 40 48 50 42 39 42 43 42 33 32
39 39 39 40 40 41 42 41 43 45 45 46 49 49 55 59 49 45 45 54 55 56 58 58 57 57 53 48 53 51 38 33 35 36 35 35 34 35 36 37 34 35 29
36 36 36 36 36 37 37 38 39 41 42 43 41 37 36 36 37 37 39 52 54 54 55 55 36 36 37 41 51 51 38 31 31 29 29 29 30 31 31 30 32 30 28
35 35 34 33 35 35 35 36 36 37 38 36 33 33 32 32 34 36 38 41 48 47 37 32 33 34 35 36 36 36 33 30 29 28 27 27 27 27 28 28 28 28 25
33 32 31 31 33 34 32 33 34 35 33 32 31 30 30 30 32 33 34 35 36 34 32 32 32 34 34 34 32 32 31 29 28 26 25 24 24 24 25 26 26 26 26
31 30 30 30 31 32 31 31 31 32 31 30 29 28 28 30 29 31 32 31 31 30 30 29 30 30 29 29 30 29 27 26 24 22 21 21 22 23 24 24 25 25 24
29 28 29 29 28 28 30 30 29 29 29 29 28 27 28 29 29 29 28 28 28 27 26 25 25 25 24 23 23 24 23 23 22 20 20 20 21 20 20 21 20 21 20
27 27 26 26 26 26 26 27 27 28 29 26 26 27 26 25 27 29 28 26 26 25 24 23 22 21 20 20 20 20 20 20 19 19 18 18 18 18 17 19 19 18 16
26 25 23 24 24 24 24 24 28 28 29 30 30 27 27 28 28 28 28 27 26 25 21 19 18 18 17 17 16 16 17 16 17 17 16 16 16 16 15 16 16 15 14
23 24 23 22 22 22 21 20 18 22 26 27 27 28 28 27 27 27 25 25 24 22 17 17 16 16 16 16 16 15 14 14 16 14 14 13 14 14 14 13 13 14 13
19 19 18 18 18 18 18 17 17 16 15 16 21 23 25 25 25 25 23 21 16 17 15 14 13 14 14 14 14 13 12 12 12 11 10 10 11 11 11 11 11 8 10
19 18 16 17 17 17 17 17 16 14 14 13 14 16 17 21 21 21 20 15 13 12 13 12 13 13 12 12 11 9 9 8 7 6 6 7 5 9 7 8 8 7 6
16 18 17 16 16 16 15 14 14 13 12 11 11 11 13 13 10 10 11 11 11 11 11 11 11 10 10 10 8 8 7 7 7 6 3 2 2 6 4 4 4 3 6
14 15 14 17 16 15 14 14 13 12 11 10 9 10 11 10 8 8 9 9 9 9 9 9 8 8 8 7 7 4 3 2 3 2 2 2 -4 -1 0 -1 0 2 4
15 15 16 14 14 13 13 13 11 11 10 9 8 7 6 7 7 6 5 5 7 8 8 6 5 5 5 4 4 0 -2 -5 -5 -5 -5 -7 -4 -4 -5 -6 -7 -7 -0
12 10 12 12 12 8 8 10 7 7 6 5 6 5 4 0 0 1 -0 -3 1 -0 2 1 -0 0 -0 -3 -1 -2 -4 -6 -8 -11 -14 -12 -6 -9 -13 -11 -7 -8 -7
9 7 10 7 5 5 2 -1 1 3 3 -0 -4 -2 -4 -8 -11 -13 -10 -9 -6 -6 -9 -11 -5 -4 -5 -12 -11 -5 -4 -11 -8 -9 -16 -16 -11 -8 -13 -9 -7 -10 -11
4 2 2 -0 -4 -6 -4 -4 -6 -7 -5 -9 -9 -8 -4 -6 -8 -15 -17 -13 -11 -15 -11 -12 -12 -11 -12 -12 -11 -10 -11 -11 -14 -14 -15 -14 -16 -17 -15 -11 -13 -9 -11
3 1 -2 -3 -5 -7 -9 -11 -16 -16 -15 -16 -17 -18 -16 -14 -15 -20 -16 -14 -14 -13 -12 -11 -9 -10 -9 -5 -6 -8 -11 -11 -14 -15 -20 -12 -16 -17 -17 -15 -12 -11 -8

GFSGL_sfc_temp_072.txt.gz
Temp
59 59 55 54 54 53 53 54 57 57 58 58 58 58 58 58 58 57 58 58 57 58 58 57 57 58 58 59 57 57 57 57 55 59 55 55 53 55 56 56 56 56 57
59 58 58 57 54 53 53 53 54 56 55 56 59 58 58 59 59 59 58 59 57 57 58 58 58 60 58 59 57 57 57 58 56 56 60 59 53 56 58 56 56 56 57
59 58 58 57 56 54 54 54 54 54 55 54 55 57 58 59 58 59 59 59 58 58 58 58 58 59 58 58 58 57 57 58 57 55 57 60 60 53 53 54 56 56 54
58 58 57 57 57 58 58 57 56 56 56 57 58 57 58 58 58 59 59 58 59 60 60 60 60 60 59 59 58 58 58 58 58 55 56 57 58 59 51 54 54 50 54
52 52 51 54 58 58 58 58 59 58 59 59 57 56 58 58 59 58 59 58 57 57 58 59 59 58 54 56 60 59 58 56 56 56 56 56 55 55 52 56 52 54 57
46 47 48 49 51 50 50 51 56 58 59 59 58 58 58 58 50 47 52 58 58 58 57 58 59 52 52 47 47 49 58 58 55 55 56 55 56 57 58 56 54 53 51
42 42 42 44 45 45 48 49 47 47 49 50 54 57 58 59 47 46 45 56 58 58 58 58 58 59 52 58 51 44 45 44 49 59 57 56 56 58 58 57 55 54 54
38 38 39 40 40 42 42 41 42 44 46 46 47 47 46 44 36 36 37 50 56 58 58 58 58 58 58 57 56 55 52 51 50 50 53 54 40 38 44 48 49 44 33
35 34 35 36 37 38 37 38 40 41 43 42 39 38 36 37 35 36 37 42 51 54 57 57 56 56 52 48 52 52 52 38 34 36 35 33 33 33 35 38 36 35 32
33 32 33 36 36 35 36 36 38 40 39 38 35 34 33 33 34 36 36 40 41 46 50 35 34 34 36 39 43 50 50 35 30 29 29 29 29 29 30 29 32 32 30
33 32 32 33 34 34 34 35 36 36 35 33 31 31 31 32 32 34 34 36 36 33 32 31 32 34 35 38 35 34 33 29 28 27 26 26 26 26 25 26 26 26 23
31 30 29 30 33 33 32 32 32 33 32 31 30 30 30 30 32 32 31 31 32 29 27 28 29 31 32 32 31 31 30 27 26 24 23 22 22 23 23 24 24 24 24
29 29 29 29 30 30 29 29 30 30 29 29 29 28 28 29 28 30 31 29 29 26 27 27 27 27 27 26 27 27 25 24 22 20 19 19 20 21 23 24 24 22 22
27 27 28 28 28 29 29 29 28 27 26 27 26 25 25 26 26 26 25 25 26 25 24 23 23 23 22 21 21 22 21 21 20 18 18 18 19 19 19 21 20 21 19
26 26 25 25 26 26 26 26 26 27 27 25 25 25 24 24 26 28 26 23 22 23 22 22 20 19 18 18 18 18 18 18 17 18 17 17 17 17 17 19 19 18 15
24 23 22 23 22 23 24 23 27 27 28 29 29 27 25 28 28 28 28 27 26 25 19 17 16 16 15 15 14 14 15 15 16 16 16 16 15 15 15 16 17 16 14
21 22 21 21 20 19 18 18 15 19 24 26 26 27 27 27 27 26 25 25 23 21 14 13 13 14 14 14 14 13 12 13 15 13 13 14 14 14 14 13 13 14 13
16 16 16 16 15 14 11 11 11 11 10 12 19 21 24 24 24 23 22 19 13 15 14 12 11 12 13 12 12 11 10 10 10 10 9 9 11 12 10 10 11 9 11
14 12 10 9 11 10 9 10 11 10 9 9 10 11 13 20 19 18 17 11 9 9 11 11 11 11 11 11 10 9 9 7 7 6 6 7 7 9 8 8 9 8 8
10 15 13 11 11 11 11 11 10 9 8 7 7 7 9 8 6 6 6 6 7 8 8 9 9 9 9 9 7 7 6 6 5 6 4 2 4 7 5 5 5 6 7
8 11 12 13 12 12 11 10 10 9 7 6 5 4 5 6 4 4 5 4 4 5 4 6 5 5 6 5 5 3 2 1 2 2 1 2 -1 2 4 3 4 5 6
11 13 13 12 11 10 10 9 8 7 7 5 4 3 1 2 2 2 1 -3 -2 3 4 1 2 2 2 2 1 -3 -4 -6 -5 -5 -4 -2 -1 -1 -0 0 -0 -0 2
9 7 9 9 9 4 4 6 4 2 1 -0 2 1 -0 -6 -5 -3 -4 -8 -3 -5 -4 -4 -5 -3 -4 -6 -4 -3 -4 -5 -5 -8 -8 -7 -4 -4 -5 -3 -2 -2 -2
6 4 8 4 2 2 -4 -7 -3 -1 -1 -6 -10 -9 -11 -15 -17 -13 -11 -10 -11 -13 -16 -14 -7 -5 -5 -10 -9 -4 -3 -8 -6 -7 -11 -9 -6 -6 -5 -4 -3 -5 -4
1 -1 -2 -2 -5 -10 -9 -9 -11 -15 -14 -16 -14 -14 -10 -12 -13 -20 -20 -17 -14 -17 -11 -13 -11 -9 -11 -13 -12 -10 -11 -11 -12 -13 -9 -9 -11 -11 -9 -6 -7 -4 -5
1 -1 -5 -6 -9 -11 -13 -18 -20 -20 -18 -20 -21 -22 -20 -16 -16 -22 -18 -15 -15 -12 -9 -12 -10 -11 -10 -5 -4 -8 -12 -12 -12 -15 -13 -7 -9 -9 -9 -8 -7 -6 -4

GFSGL_sfc_temp_078.txt.gz
Temp
63 63 67 68 67 65 65 65 65 64 64 62 64 63 61 59 59 59 59 59 58 59 59 58 59 60 58 59 60 61 62 61 57 63 65 71 70 73 74 74 72 72 74
63 63 65 66 67 67 65 64 64 63 63 64 64 63 61 59 59 59 58 58 57 57 59 59 59 60 58 59 58 57 57 59 56 55 62 62 64 68 73 72 74 77 75
63 63 62 61 61 63 66 68 67 65 63 63 64 62 62 61 61 61 63 63 63 62 61 60 60 60 59 60 59 59 60 60 59 56 59 68 71 73 72 74 73 74 76
59 57 55 58 60 61 63 65 66 67 66 64 64 64 64 65 64 65 66 66 64 63 65 64 64 65 65 66 66 65 65 63 65 63 66 67 69 72 72 70 69 73 73
50 50 48 49 51 52 52 53 57 61 64 68 67 67 66 57 45 47 63 64 62 64 65 65 66 64 56 59 67 67 65 65 66 65 62 66 67 67 67 70 68 70 72
46 45 48 48 47 47 48 48 49 50 50 50 48 47 45 43 37 38 41 56 59 61 61 62 63 55 55 47 48 48 56 62 61 61 61 59 61 65 68 66 65 62 60
45 45 47 48 47 47 48 47 47 46 45 43 43 42 38 37 36 36 36 44 49 51 53 51 54 57 50 54 49 44 45 43 44 56 57 58 57 58 53 57 58 58 58
46 45 45 45 47 49 49 48 46 43 41 39 39 39 38 36 35 35 35 46 49 40 37 37 39 40 39 38 43 47 51 38 36 41 37 33 31 32 34 39 40 40 37
39 40 42 44 44 46 45 44 45 44 41 39 39 38 39 36 35 35 43 49 40 37 36 35 35 35 34 35 41 42 37 31 32 32 31 31 30 30 30 35 35 36 37
39 40 42 41 43 41 42 42 43 43 41 41 40 40 36 39 33 34 40 40 35 34 32 33 32 33 33 33 36 38 29 27 28 27 27 27 27 27 27 26 25 30 32
39 38 38 41 40 40 41 42 41 40 40 39 38 38 37 34 34 33 34 37 33 31 30 30 31 31 32 32 31 29 27 27 26 25 25 25 26 25 25 27 26 25 25
39 38 36 37 39 40 39 39 40 39 38 38 37 35 35 34 32 31 31 32 35 33 31 31 30 31 31 31 31 30 29 29 27 26 25 24 24 27 28 27 27 27 28
36 36 37 37 36 38 38 39 39 39 38 37 36 34 33 35 35 32 31 30 30 31 30 30 30 31 31 30 30 31 32 32 31 30 28 27 28 29 30 31 31 31 30
36 35 34 35 35 36 36 36 35 34 34 34 33 32 32 31 31 33 33 34 31 32 31 31 30 30 30 30 30 30 30 29 29 28 28 29 30 30 30 32 31 32 31
36 35 34 34 32 30 30 31 30 29 31 31 30 30 29 27 27 29 29 30 30 30 31 31 30 30 29 29 28 27 28 29 28 28 28 29 29 30 29 31 31 31 28
34 34 33 34 34 34 31 27 27 27 28 28 28 29 28 27 27 27 27 27 28 30 30 28 27 27 27 27 27 27 27 26 27 28 28 28 27 26 27 28 29 28 26
31 32 33 33 33 32 32 32 26 24 24 24 26 26 26 25 25 25 26 26 27 30 28 27 25 25 26 26 26 26 24 24 26 26 25 25 25 26 25 25 25 26 25
28 27 30 30 30 29 28 27 27 27 25 24 22 22 23 23 23 24 25 29 27 27 27 25 24 25 25 25 25 24 24 24 23 23 23 22 23 23 23 23 23 21 23
28 28 28 27 26 27 27 27 26 25 25 25 25 24 22 22 22 23 24 25 24 24 25 24 24 24 24 24 22 22 20 20 20 20 21 20 20 22 21 21 22 18 19
26 25 27 28 28 27 27 26 25 25 24 23 21 21 25 25 22 21 22 22 22 22 23 22 22 22 21 22 20 19 20 19 19 20 19 18 19 20 20 19 19 20 20
29 27 25 28 27 27 26 25 25 24 22 22 18 15 15 22 20 20 20 19 19 20 20 21 20 19 20 19 20 18 17 17 16 16 17 17 16 17 18 19 19 19 19
29 28 27 26 26 25 25 25 24 23 22 21 20 16 16 20 20 19 18 17 17 19 20 19 18 18 16 16 16 16 15 14 14 14 15 14 16 18 17 18 17 17 18
27 25 25 25 24 21 23 23 22 21 20 20 20 18 18 17 17 17 16 16 16 16 15 17 16 15 15 14 15 14 13 12 12 11 10 12 14 14 16 16 15 15 14
25 24 23 22 22 22 22 20 18 15 18 19 18 17 16 16 15 14 14 14 14 15 14 13 13 10 11 12 14 14 12 10 10 11 8 9 12 13 14 14 14 13 13
22 22 21 21 20 19 20 19 18 18 18 18 18 18 17 16 15 14 13 13 11 12 10 11 11 11 10 7 7 7 5 4 5 2 9 10 10 8 9 11 10 13 12
20 19 20 20 19 19 19 18 17 17 16 16 16 15 14 14 14 13 12 10 10 10 9 12 11 8 7 11 7 7 3 3 4 2 4 10 9 10 10 10 10 11 12

GFSGL_sfc_temp_081.txt.gz
Temp
67 71 68 67 70 69 68 69 68 67 66 64 64 61 59 58 58 58 59 58 57 58 59 59 60 61 60 61 60 61 63 64 59 67 70 71 68 69 71 70 73 73 72
67 67 67 67 67 68 67 69 69 67 66 64 63 64 61 60 59 58 57 58 58 58 57 57 58 60 60 62 60 59 60 60 57 56 61 62 64 67 65 65 69 73 75
64 64 64 65 66 66 66 66 66 65 63 63 63 63 64 63 61 60 59 59 60 58 59 58 59 59 59 59 60 59 58 60 58 56 58 63 65 67 66 66 68 70 74
59 57 57 60 65 66 67 67 64 65 63 62 63 63 63 62 59 59 60 60 60 61 63 63 64 64 62 60 59 61 64 63 64 63 63 64 66 68 68 66 66 70 71
50 49 48 49 51 51 51 56 59 56 55 55 59 51 48 45 42 44 53 58 61 62 66 63 63 61 53 56 63 64 64 62 61 61 61 63 64 64 64 68 66 68 70
46 46 47 47 48 47 48 49 47 46 47 47 43 42 41 40 36 37 41 56 60 57 55 52 54 44 44 41 41 42 45 55 59 58 58 58 62 64 65 64 63 61 59
44 45 47 48 47 47 47 45 43 41 41 41 40 39 36 36 36 37 37 48 46 41 40 41 44 43 39 40 42 42 35 35 36 43 46 46 39 35 36 41 46 45 45
44 44 46 48 48 47 46 43 42 40 39 39 39 38 36 35 35 36 37 42 38 37 36 37 37 36 35 35 40 43 33 32 32 33 30 29 29 30 31 35 36 37 37
39 41 45 46 46 46 44 44 43 42 40 39 39 39 37 35 35 37 42 41 37 36 35 34 36 36 34 36 44 37 31 29 31 32 31 30 31 31 30 34 29 32 35
38 40 42 42 43 42 42 42 44 44 42 42 40 39 37 35 34 36 40 38 35 33 34 33 32 33 33 34 36 33 28 26 27 27 28 28 28 28 30 28 27 28 26
39 40 40 41 40 41 43 43 43 42 42 40 38 38 37 35 33 34 36 39 36 34 33 31 32 32 33 32 32 31 28 29 28 29 29 30 31 31 31 31 31 30 30
37 37 37 38 40 42 41 40 40 42 40 39 36 36 36 35 33 32 33 34 35 33 30 31 31 32 32 32 32 32 33 33 33 32 31 30 30 30 31 31 31 31 31
40 37 36 36 36 37 36 37 38 39 37 35 34 33 33 34 34 33 32 31 32 31 31 31 32 32 32 31 31 32 31 32 31 30 28 28 29 31 33 33 34 34 33
37 37 37 37 37 38 36 33 31 34 34 33 33 32 31 30 31 33 33 33 32 32 32 32 32 31 32 31 31 31 31 31 30 29 29 31 33 32 32 33 32 33 33
37 36 35 34 32 29 28 30 29 29 29 30 30 29 28 26 26 29 30 30 31 31 32 32 31 31 30 31 30 30 30 30 30 30 30 30 30 31 31 33 32 32 30
35 35 35 36 35 33 30 26 28 28 28 28 28 29 27 27 28 28 29 30 31 32 31 29 28 29 28 29 28 28 28 28 29 29 29 29 28 28 28 30 30 29 28
33 34 34 33 33 32 32 30 25 24 25 26 26 26 26 26 26 27 29 29 30 32 30 28 27 27 27 28 28 27 26 26 28 27 26 26 27 27 27 27 26 27 27
30 30 30 30 30 30 29 28 29 28 26 23 23 24 25 25 26 28 29 31 29 29 28 27 26 27 27 26 26 25 25 24 24 25 24 24 24 25 24 24 25 22 23
30 29 29 29 29 29 30 30 29 29 28 28 27 27 27 26 26 27 28 28 26 26 26 26 26 26 26 25 23 24 23 22 22 22 22 21 22 23 22 22 23 21 21
29 29 30 31 30 30 30 30 29 28 27 25 23 22 28 28 25 24 24 24 24 25 25 25 24 24 23 23 23 21 22 21 20 21 20 20 20 22 21 21 21 20 21
31 30 29 31 30 30 29 28 28 27 26 24 20 19 18 25 24 23 22 22 22 22 22 23 22 21 21 21 22 21 19 19 18 18 19 18 18 19 20 21 20 21 21
31 30 30 29 29 28 28 28 27 26 25 24 24 20 21 23 23 22 21 20 20 21 22 21 20 20 18 18 18 17 17 15 15 15 14 16 17 19 19 19 19 18 19
30 28 28 28 27 26 26 27 26 25 24 23 23 22 21 20 20 20 19 18 19 18 17 18 17 17 16 17 17 17 14 12 13 13 11 12 15 16 15 17 17 16 15
28 27 26 25 24 26 24 23 22 18 21 22 21 21 19 19 18 17 17 16 16 17 16 16 15 12 12 12 15 15 12 9 9 11 8 11 13 13 13 14 15 14 15
25 24 24 24 22 23 23 22 22 21 21 20 20 20 20 19 18 17 16 15 13 14 14 13 14 13 13 10 10 10 6 5 6 5 9 11 13 11 13 12 13 13 13
23 22 23 23 22 22 21 21 20 20 19 19 19 19 18 17 17 16 15 14 13 12 13 14 14 12 11 13 11 8 6 5 4 3 4 9 11 12 12 10 11 11 12

GFSGL_sfc_temp_084.txt.gz
Temp
65 67 67 66 65 66 66 65 65 64 63 62 61 59 57 57 58 57 57 57 57 56 57 57 57 58 57 57 58 58 58 57 54 60 63 64 62 61 65 64 63 64 63
66 65 63 64 64 64 64 65 64 63 63 62 61 60 59 58 57 57 57 57 57 56 56 56 56 58 56 57 57 57 58 59 56 56 60 59 59 62 62 61 65 69 68
63 63 63 63 63 63 64 64 65 63 61 61 61 60 60 59 58 57 57 56 56 57 57 56 56 56 56 56 57 58 58 58 58 56 57 61 61 62 61 62 62 63 66
57 54 53 54 57 57 59 62 62 62 61 60 59 52 50 48 49 52 58 58 57 58 58 58 57 57 57 57 58 57 59 58 57 56 56 57 58 61 62 60 59 62 62
50 49 49 50 51 53 51 51 51 51 50 51 48 46 44 42 40 41 48 55 58 58 58 59 52 45 42 43 55 53 55 57 57 57 56 58 58 58 57 58 57 57 58
46 46 47 48 48 46 46 45 44 44 43 42 40 39 39 39 37 38 41 52 48 47 45 45 48 40 41 40 37 36 37 45 49 51 53 52 52 41 43 43 46 48 49
43 45 46 46 45 43 43 42 40 40 40 38 38 38 36 36 37 39 40 42 39 38 38 39 41 39 37 40 38 35 34 34 33 38 40 31 33 31 33 38 41 41 42
41 43 45 44 43 43 41 39 39 39 38 38 37 36 35 36 38 38 37 38 36 34 34 36 35 34 35 37 39 33 31 31 31 32 30 29 29 30 30 34 35 35 36
36 38 42 43 43 41 40 39 39 38 36 36 36 35 34 33 36 38 38 36 34 33 33 34 34 33 35 40 36 31 29 28 32 33 32 32 32 33 32 32 28 32 33
35 35 39 40 41 41 41 41 40 40 37 35 34 34 33 33 35 37 38 36 32 31 32 32 34 33 33 34 32 30 26 26 28 28 29 30 32 32 32 29 29 27 24
34 35 35 36 38 38 40 41 40 38 37 35 34 32 32 32 33 35 37 36 32 30 29 29 30 33 34 34 32 29 28 29 29 31 30 30 30 30 28 25 25 24 25
34 34 33 35 37 35 37 38 38 37 35 34 32 32 31 32 33 33 33 33 33 30 28 29 30 32 33 33 32 33 33 32 31 29 28 27 27 24 27 23 21 21 20
33 32 32 32 32 33 31 33 34 35 34 32 31 29 29 30 31 33 33 32 32 30 30 32 32 32 32 30 32 32 30 30 29 27 26 26 24 23 23 24 25 24 24
34 32 31 29 29 31 30 29 28 30 30 30 29 27 26 26 27 29 31 31 31 31 31 31 30 30 30 26 26 27 26 27 26 25 24 20 22 21 20 22 21 23 22
34 32 31 29 27 26 26 27 26 26 28 27 25 26 24 23 26 29 29 28 29 30 31 30 28 27 24 23 22 22 22 22 21 19 19 19 19 23 22 24 25 23 18
33 33 33 31 30 28 25 24 29 28 29 29 29 27 25 28 29 30 31 32 32 32 27 24 23 21 20 20 20 19 20 19 20 21 19 21 20 20 21 22 24 22 17
31 32 31 31 31 30 29 25 20 23 27 27 27 27 28 28 28 29 31 31 32 30 24 22 18 18 18 20 20 19 17 19 22 18 17 16 19 19 19 21 20 20 19
29 29 28 28 28 28 28 28 27 26 21 19 24 25 27 28 29 30 31 30 23 25 22 20 18 17 19 20 20 18 17 15 16 17 13 14 14 17 14 16 17 12 15
28 28 28 28 28 28 28 27 27 25 24 21 22 22 22 28 28 28 28 21 19 18 19 19 17 17 18 18 13 14 11 9 9 9 13 13 8 14 12 13 14 12 12
27 28 29 29 28 27 26 25 25 24 21 18 16 17 20 22 18 17 18 17 17 18 18 18 18 17 15 16 14 9 11 11 11 13 7 6 6 11 9 11 9 10 14
29 28 25 27 26 26 25 24 24 23 20 17 14 13 12 20 17 16 17 15 15 16 14 16 14 12 13 13 15 14 10 10 9 8 10 10 5 11 10 12 10 12 15
28 27 27 25 25 24 25 25 23 22 22 20 18 15 14 18 17 16 16 13 13 14 15 14 14 14 12 11 10 5 7 5 6 5 4 5 8 11 7 11 8 6 9
27 26 26 25 25 22 22 22 21 20 19 18 18 17 16 15 13 14 14 11 14 12 10 10 8 9 8 10 11 10 5 4 4 5 1 4 6 7 6 8 8 9 5
25 24 24 21 20 21 21 19 15 13 17 17 16 16 13 13 11 12 9 7 7 10 5 6 8 5 4 2 4 7 4 -1 1 3 -4 2 6 6 1 4 6 2 3
22 22 21 20 19 19 19 18 17 16 16 15 15 15 14 14 13 11 9 7 4 5 7 6 6 4 4 0 2 1 -3 -2 -5 -4 -2 -1 4 2 4 4 6 6 2
20 20 20 19 18 18 17 17 16 15 14 14 14 14 12 11 12 8 9 7 6 3 5 7 7 5 3 5 5 -0 -3 -2 -5 -5 -7 0 4 2 1 -2 0 3 4

GFSGL_sfc_temp_087.txt.gz
Temp
64 64 64 64 64 64 63 62 61 60 60 59 59 58 57 57 58 59 59 59 58 58 57 57 57 58 56 56 56 55 56 55 51 56 59 60 60 60 62 60 61 62 63
63 62 61 63 63 62 62 62 62 61 60 59 59 58 58 57 57 57 57 58 58 57 56 56 56 57 56 56 56 55 55 55 54 53 58 58 59 58 59 60 62 66 63
61 60 60 60 61 60 61 61 61 60 59 59 59 59 58 57 57 57 57 57 57 57 56 56 55 55 55 55 55 55 56 56 56 55 55 57 59 58 59 58 60 62 64
54 54 53 55 55 55 56 57 58 59 55 52 50 49 49 49 51 55 57 56 56 56 57 56 56 56 56 56 56 56 56 56 56 55 55 56 54 57 58 57 57 58 58
49 49 49 51 51 49 48 48 48 48 48 48 46 44 43 43 42 45 52 55 56 54 53 47 43 43 40 41 54 52 53 55 55 54 54 55 55 55 51 49 51 51 48
45 46 47 46 45 44 44 43 43 42 41 41 39 40 40 41 38 39 46 45 45 45 44 43 41 41 38 37 37 35 36 42 48 49 50 47 43 39 39 41 43 46 45
43 44 44 43 42 41 41 41 39 38 38 37 37 38 38 39 38 38 39 39 38 37 37 39 38 38 39 37 35 34 33 33 32 38 35 32 33 31 32 37 40 40 40
39 41 42 42 41 41 39 38 37 37 36 35 35 36 36 37 37 36 36 36 34 34 34 34 35 36 37 37 34 32 31 31 31 32 30 29 30 31 31 33 33 34 31
34 36 40 41 40 39 37 36 36 35 34 33 34 34 35 35 37 36 36 34 33 32 33 33 34 34 36 37 33 30 28 28 33 34 34 34 34 33 32 29 27 27 30
33 33 35 37 38 37 36 35 34 33 32 32 31 32 34 33 35 35 35 33 30 30 31 32 34 33 34 33 31 30 28 27 29 30 30 31 32 31 31 24 23 24 18
33 33 33 34 33 35 36 35 34 33 32 31 30 31 32 32 33 35 34 32 30 29 29 29 32 34 34 34 33 30 28 29 29 28 25 21 21 21 22 21 19 20 17
32 32 32 32 32 32 33 33 33 33 31 31 30 29 30 31 32 33 33 33 32 29 28 29 31 33 34 33 32 33 32 28 26 22 17 17 17 19 19 17 17 17 15
29 28 28 29 29 29 28 30 32 31 30 28 28 27 27 28 31 33 33 32 32 29 30 32 32 32 31 30 32 31 28 26 22 21 19 18 13 14 21 20 21 21 22
28 28 27 27 26 27 28 28 27 28 27 27 26 24 25 26 27 29 30 30 30 30 29 29 29 28 26 25 25 24 23 22 20 17 11 10 15 18 20 20 19 21 20
30 29 27 27 26 26 26 26 26 27 27 24 24 24 23 23 27 31 30 28 29 28 27 26 24 23 22 21 21 20 20 21 20 19 18 18 19 21 21 22 23 21 16
30 30 29 27 26 25 24 24 29 29 30 30 28 26 25 30 32 32 33 33 32 30 24 21 19 19 19 19 18 17 18 17 18 20 17 18 18 18 19 19 20 17 14
28 29 29 28 28 24 23 21 19 24 28 29 29 30 30 30 31 32 31 31 30 27 20 17 15 15 16 17 17 16 14 17 19 16 15 14 15 15 16 17 17 17 16
26 27 26 26 26 26 25 21 20 18 17 15 25 26 29 30 30 31 29 26 19 20 18 16 15 13 16 17 17 15 14 14 12 14 9 8 10 12 10 13 14 8 12
25 21 21 20 21 21 22 22 21 19 16 15 16 17 20 27 26 26 24 15 13 13 16 15 14 14 14 14 8 11 4 6 6 2 6 8 4 8 7 10 11 8 10
20 22 22 21 21 19 19 20 19 16 12 10 10 10 14 17 13 13 13 11 13 13 14 14 13 12 10 13 8 -1 5 4 6 7 0 1 5 8 5 9 6 5 10
19 21 19 21 20 19 18 18 18 15 12 9 7 6 12 15 12 10 11 10 10 11 12 12 7 6 5 3 8 5 3 3 4 3 1 3 -0 6 6 7 9 9 11
20 21 21 18 19 17 19 19 17 16 15 11 9 11 12 11 11 10 10 6 2 7 11 9 8 6 6 8 3 -2 -3 -6 -4 -2 -3 -2 1 3 1 3 4 2 6
20 19 20 19 19 16 14 15 14 12 10 9 11 11 10 4 5 8 4 -2 9 3 1 2 -2 -0 0 2 4 -1 -3 -6 -6 -7 -11 -8 -1 3 -6 -4 -0 -1 -3
19 17 19 15 16 16 12 4 4 8 10 6 3 1 1 -2 -1 1 -5 -6 -4 1 -7 -5 -1 -1 -2 -7 -6 -3 -2 -8 -6 -6 -12 -11 -4 2 0 2 1 -1 -4
13 11 8 10 8 6 5 6 5 4 4 3 4 5 6 7 7 1 -6 -6 -5 -7 -3 -2 -2 -3 -4 -6 -4 -7 -6 -6 -10 -8 -10 -10 -8 -1 -1 -3 -6 -3 -5
9 9 8 11 7 6 8 8 6 1 1 2 1 1 -1 0 3 -3 -4 -3 -5 -6 -4 1 3 0 -3 -1 -1 -3 -7 -6 -10 -9 -13 -8 -6 -7 -10 -8 -6 -6 -4

GFSGL_sfc_temp_090.txt.gz
Temp
61 61 61 61 62 62 60 59 60 59 59 59 59 58 57 58 58 58 58 58 59 58 58 58 57 57 57 56 56 55 55 54 52 54 55 58 58 59 61 60 61 60 61
60 61 61 62 61 61 60 61 60 59 59 59 59 58 58 57 57 58 57 58 58 57 57 57 56 57 56 56 55 54 54 55 52 51 55 54 55 58 59 59 60 63 61
59 59 60 60 60 60 60 60 60 60 59 59 58 58 57 57 57 57 58 58 57 59 58 57 56 56 55 54 54 54 54 55 54 53 54 55 55 56 56 57 57 58 60
54 56 55 54 55 55 55 55 56 55 53 52 51 51 51 51 54 56 57 57 57 57 57 57 57 56 56 55 55 54 54 54 54 53 54 54 54 55 55 55 52 53 51
48 49 49 49 49 49 48 48 47 46 47 47 46 45 45 45 44 48 54 56 55 48 46 45 42 42 40 43 54 52 54 53 53 53 53 53 52 52 48 47 49 49 42
44 43 45 46 45 43 43 42 41 41 41 41 40 41 41 41 39 40 46 46 46 44 41 41 41 38 37 36 36 35 36 44 50 51 48 46 39 37 39 40 43 45 44
42 43 42 41 41 41 40 39 38 37 37 37 38 38 37 37 37 38 38 39 38 38 39 39 39 38 37 36 35 34 34 34 34 40 35 32 33 31 32 37 39 39 34
37 39 40 40 38 38 38 36 35 35 35 35 36 37 36 36 36 36 36 36 34 34 34 36 37 37 36 35 33 32 31 31 32 32 31 30 31 32 32 34 34 32 31
34 35 37 36 35 35 34 33 34 33 33 33 34 35 34 34 35 35 35 33 32 32 33 34 35 34 35 36 32 30 29 30 34 35 34 34 34 33 31 29 25 32 28
32 33 34 35 34 32 32 32 32 32 32 32 31 32 34 33 34 34 34 32 30 31 32 32 33 32 34 34 32 31 28 28 29 29 29 27 25 26 29 21 19 20 25
32 32 32 33 33 33 33 32 32 31 30 30 30 30 31 32 32 33 33 32 30 30 30 30 32 34 34 34 33 30 28 29 25 23 22 22 21 20 20 20 18 21 18
29 29 29 29 30 31 32 32 32 30 29 28 28 29 30 30 32 32 32 32 32 29 28 30 32 34 34 33 32 32 31 25 23 21 21 19 20 20 18 19 18 17 15
28 27 27 27 27 28 28 29 29 29 27 27 27 27 27 30 30 32 32 31 30 28 29 30 31 30 29 28 30 29 26 24 23 21 19 14 10 12 20 21 24 25 25
27 26 27 26 26 27 27 28 27 26 26 26 25 25 26 27 28 29 30 30 30 29 27 26 25 25 23 23 23 23 22 21 20 19 17 9 17 20 20 19 18 20 20
27 27 26 26 26 25 26 26 26 26 26 24 24 25 25 25 28 30 29 27 27 27 25 24 22 21 19 19 19 19 20 20 18 18 17 17 18 19 19 20 21 19 16
29 28 26 25 25 25 24 24 30 30 30 30 29 27 28 31 32 32 32 31 30 28 22 19 17 17 16 16 16 16 17 18 18 18 16 17 16 17 18 18 19 16 15
28 28 28 26 25 23 22 22 20 25 30 30 31 31 31 31 31 31 30 29 27 24 18 16 15 15 15 16 15 15 13 15 16 13 12 11 13 14 14 15 15 15 14
24 24 24 25 25 22 20 19 18 18 16 16 21 27 29 30 30 29 27 23 18 18 16 14 11 12 14 15 15 13 11 11 9 10 7 6 5 9 9 11 12 7 11
25 24 22 20 20 21 22 20 18 16 14 13 15 18 21 26 25 23 21 15 13 12 14 12 12 13 12 11 5 4 3 2 -2 -2 1 4 -1 6 6 8 8 6 8
20 22 20 19 19 20 19 17 15 13 12 11 12 9 14 14 11 10 10 9 10 11 12 12 11 9 8 8 2 -3 2 -0 1 2 -7 -6 -5 2 3 4 3 2 8
19 20 18 18 18 18 17 16 14 13 11 12 11 10 13 12 10 9 9 7 8 10 8 8 5 4 4 3 6 0 -2 -4 -3 -3 -4 -2 -12 -3 2 3 3 6 8
20 20 20 18 19 17 17 18 15 14 14 13 12 10 10 9 9 9 7 1 -0 6 8 5 5 4 3 3 -1 -8 -10 -14 -12 -10 -10 -8 -4 -3 -4 -2 -3 -4 1
18 17 17 17 16 12 13 14 11 10 9 9 10 9 8 4 3 5 3 -4 1 -3 -2 -1 -2 -1 -2 -4 -6 -4 -6 -9 -9 -14 -15 -13 -6 -4 -8 -6 -3 -4 -6
16 12 15 12 13 11 3 -1 4 7 8 3 -2 -2 -0 -3 -4 -5 -9 -11 -8 -11 -13 -8 -4 -3 -6 -11 -11 -7 -4 -10 -8 -9 -14 -14 -9 -3 -7 -4 -4 -7 -7
8 7 6 5 4 4 4 4 0 -1 3 1 -0 -0 0 -0 -3 -9 -11 -11 -10 -10 -8 -2 -7 -6 -8 -9 -10 -8 -8 -8 -12 -11 -13 -12 -11 -11 -10 -7 -10 -6 -8
6 6 4 7 5 6 7 5 1 3 4 1 1 -3 -3 2 3 -8 -9 -8 -8 -9 -8 -7 -3 -5 -7 -5 -4 -6 -8 -8 -13 -12 -17 -11 -13 -13 -14 -12 -9 -9 -7

GFSGL_sfc_temp_093.txt.gz
Temp
60 60 59 59 59 58 58 57 57 57 58 58 58 58 58 58 59 58 58 59 59 59 59 59 58 58 56 55 56 56 55 55 52 53 56 56 56 58 59 59 60 59 59
60 59 59 59 59 59 57 57 58 57 57 57 58 58 58 57 58 57 57 57 58 57 58 58 58 58 56 55 55 54 54 54 53 52 54 54 55 56 58 58 59 61 57
57 59 58 59 60 60 60 59 59 57 58 58 58 57 57 57 57 57 57 57 58 58 58 57 57 58 56 55 55 54 54 54 54 53 53 54 55 55 55 56 57 53 48
49 53 56 58 58 57 56 57 56 55 53 52 52 51 51 52 55 57 57 57 57 57 58 58 57 57 56 55 55 54 54 53 53 52 52 53 53 54 54 53 52 51 46
44 44 45 49 51 50 49 48 48 47 47 47 46 45 44 45 44 45 55 56 51 48 47 45 44 44 45 51 55 54 54 53 52 52 51 52 52 51 50 47 49 45 39
41 40 41 42 43 42 42 42 42 41 41 42 40 39 39 40 38 40 47 48 46 44 41 40 39 39 37 37 37 35 38 51 51 51 51 50 41 40 40 41 44 45 41
39 38 38 38 38 38 38 38 37 37 39 38 37 37 35 36 37 37 38 40 39 39 39 39 38 37 36 35 35 34 34 34 34 43 39 34 34 33 35 38 39 39 34
35 36 37 36 34 35 35 35 35 35 35 36 35 35 34 35 35 36 36 36 35 34 35 37 36 35 35 35 34 32 31 31 32 32 31 30 31 32 33 35 35 31 30
32 33 33 35 33 34 32 32 33 33 33 33 34 34 33 33 35 35 35 34 32 32 34 35 35 34 35 36 33 31 30 30 33 34 33 33 33 33 33 33 31 32 28
31 31 33 33 33 32 32 32 32 32 31 32 31 32 33 32 34 34 34 33 31 31 32 32 33 33 34 34 32 31 28 27 28 27 26 26 25 26 28 20 21 29 25
30 30 31 31 32 32 32 32 31 31 30 30 30 30 31 32 32 34 34 32 31 31 31 31 32 33 33 33 32 29 27 27 24 24 23 21 21 21 21 21 20 22 17
28 28 28 29 30 30 30 30 30 29 28 28 28 29 30 30 32 32 32 32 31 30 28 30 31 33 32 32 30 30 28 25 24 21 20 18 19 19 19 21 21 22 23
27 26 27 27 27 28 28 28 27 28 27 27 27 27 27 29 30 31 31 30 30 27 27 28 28 28 28 28 29 28 24 22 22 19 16 13 14 17 23 24 24 25 26
26 26 26 26 26 27 27 27 26 26 25 25 26 26 27 28 28 29 29 27 27 25 24 24 24 24 22 22 22 23 21 20 19 17 15 15 20 20 20 22 21 22 22
27 26 25 25 25 26 26 26 26 26 26 25 25 26 26 26 28 29 28 26 24 24 23 22 21 20 19 19 19 19 20 19 18 18 18 18 19 20 20 21 21 20 17
28 27 25 25 24 24 25 26 29 29 29 29 30 29 30 31 31 30 29 28 27 25 21 18 17 17 16 17 16 16 17 16 17 17 16 17 16 17 17 17 18 17 15
27 28 26 25 24 23 22 22 20 23 27 29 31 31 31 30 31 30 29 28 26 23 17 16 15 15 15 16 15 15 14 15 15 13 12 12 14 15 15 15 14 15 14
23 24 23 24 22 20 19 18 18 17 17 17 24 27 29 29 28 27 26 23 17 18 16 15 14 14 15 15 15 13 12 10 10 10 7 5 7 11 11 11 12 8 11
21 20 19 20 20 20 19 18 17 16 15 15 17 17 18 24 23 23 21 15 14 14 14 13 13 13 12 10 7 5 5 4 3 -0 1 4 -2 6 6 7 8 6 7
18 20 19 19 19 19 17 16 15 15 14 13 13 12 15 15 11 10 10 10 11 11 11 11 11 10 10 7 3 1 1 1 2 3 -4 -10 -10 0 2 3 2 3 8
16 17 16 18 17 16 15 13 13 13 13 12 9 9 12 11 9 9 9 8 9 9 7 8 6 5 4 4 5 0 -1 -2 -1 -3 -3 -2 -13 -4 1 1 1 5 7
17 17 18 16 17 15 16 15 13 13 12 11 9 7 8 7 8 7 6 1 2 7 7 5 5 4 4 2 -1 -7 -8 -13 -12 -10 -9 -8 -5 -5 -5 -5 -5 -7 -1
15 13 15 16 16 13 12 13 10 8 7 6 8 8 6 1 1 4 1 -7 -0 -2 -1 -1 -3 -2 -3 -7 -7 -4 -4 -8 -10 -15 -15 -14 -8 -9 -10 -8 -5 -6 -7
13 9 13 10 9 9 3 3 7 10 10 5 1 2 2 -2 -7 -7 -11 -13 -12 -14 -14 -10 -5 -3 -6 -13 -12 -7 -4 -11 -9 -10 -15 -15 -10 -6 -10 -7 -6 -9 -10
5 5 6 5 0 1 -3 -2 -3 -1 -0 -4 -7 -7 -5 -6 -8 -12 -15 -14 -12 -13 -9 -11 -10 -9 -10 -11 -11 -9 -9 -9 -14 -13 -15 -14 -14 -15 -13 -10 -12 -8 -10
3 4 6 7 6 4 2 -2 -4 -3 -4 -3 -3 -6 -6 -4 -4 -11 -12 -12 -11 -11 -10 -10 -8 -8 -9 -7 -6 -8 -10 -9 -14 -15 -19 -12 -14 -14 -15 -13 -11 -11 -9

GFSGL_sfc_temp_099.txt.gz
Temp
48 59 61 61 60 60 61 63 62 61 60 61 62 62 63 62 62 61 61 61 60 60 60 60 59 60 58 59 59 59 56 56 54 54 60 64 64 65 65 65 66 66 59
47 52 59 60 61 61 60 62 61 60 60 61 62 61 61 60 60 59 59 59 60 59 59 59 58 59 58 59 57 57 57 56 55 52 55 60 61 62 64 64 65 61 54
45 45 47 48 57 60 60 60 60 59 59 60 60 60 60 59 59 58 59 61 60 59 60 60 59 58 57 57 57 56 56 55 56 55 53 58 61 63 61 56 50 48 46
42 42 41 43 44 50 60 60 60 60 60 60 59 57 56 54 56 58 58 58 58 60 58 58 59 58 58 57 57 56 56 55 56 58 55 55 60 58 61 53 49 47 44
38 39 39 41 41 41 46 45 57 54 52 51 49 47 46 46 45 47 54 57 58 53 48 46 43 52 52 55 57 56 55 55 55 54 53 53 53 53 54 53 48 42 40
35 36 39 39 39 37 38 39 41 43 43 42 40 40 40 41 38 40 48 50 48 46 43 42 40 40 39 39 39 41 51 55 54 54 53 52 52 49 48 50 42 40 38
34 35 36 37 37 38 37 36 34 36 37 37 37 37 36 38 37 38 39 42 41 40 39 39 39 38 38 37 36 35 34 35 38 52 52 48 43 42 43 43 44 42 35
33 33 33 35 35 36 35 33 32 32 34 34 35 36 36 36 36 37 37 38 36 35 35 36 36 35 36 36 35 33 32 32 33 34 34 32 33 35 37 39 36 31 31
30 30 31 32 31 32 32 32 32 32 32 32 34 34 34 35 36 36 36 36 34 33 34 35 34 34 35 36 33 31 29 28 32 33 33 33 33 34 36 37 33 34 29
29 30 31 31 30 30 30 31 32 32 31 32 31 32 33 33 35 35 36 35 32 32 33 33 34 33 34 34 32 31 27 26 27 26 26 27 28 29 30 31 34 32 28
30 30 30 31 30 30 30 30 30 30 30 30 29 30 30 32 33 35 35 33 32 31 30 30 31 32 32 32 31 28 26 27 26 26 25 24 25 25 25 26 27 29 27
29 29 28 29 30 31 30 30 30 30 29 28 28 27 28 28 31 31 32 31 32 29 28 29 30 31 31 30 28 29 28 27 26 24 24 23 23 23 24 25 26 27 29
28 27 29 29 30 31 30 30 31 31 30 30 29 29 29 29 28 29 29 28 28 26 27 28 28 28 28 27 27 27 26 26 25 22 21 22 24 26 28 27 28 29 30
30 29 29 29 29 31 32 32 31 31 31 31 31 29 29 29 29 29 28 28 27 27 26 26 25 24 24 24 24 24 24 24 24 23 22 24 26 26 26 29 28 28 28
31 30 30 30 29 29 29 30 31 31 32 30 30 31 30 28 28 29 28 28 27 26 27 27 26 25 23 22 22 22 23 24 23 24 24 24 25 24 24 26 26 25 23
31 30 28 30 30 30 30 28 29 30 31 31 31 31 30 30 30 30 29 28 27 26 26 24 23 23 21 21 21 21 21 21 22 23 23 23 22 23 22 23 24 24 22
28 29 29 28 27 27 27 26 26 26 27 28 29 30 30 29 28 28 27 26 26 26 24 22 22 22 21 21 21 21 19 20 21 21 21 21 21 21 22 21 22 22 21
25 22 26 26 25 25 24 24 24 23 22 22 23 25 26 27 26 26 25 26 23 23 23 22 21 21 20 19 19 19 18 18 19 19 19 20 21 21 21 20 21 20 21
26 25 25 24 23 23 24 24 24 23 22 21 23 22 21 23 23 23 23 22 21 20 21 20 20 19 19 18 16 15 15 15 15 16 17 18 19 21 19 19 18 16 19
25 21 22 25 24 24 24 23 23 22 21 20 19 20 22 22 19 18 19 19 19 19 19 19 19 18 17 16 15 15 15 15 15 15 14 15 17 18 17 17 18 18 17
26 26 20 26 24 24 23 22 22 21 20 19 18 17 15 19 18 17 18 17 17 18 17 18 17 16 16 15 16 14 13 13 13 14 14 13 15 15 16 16 16 16 17
25 24 24 24 24 23 23 23 22 21 20 19 18 16 14 17 17 16 15 14 15 16 17 17 16 15 15 14 13 12 10 10 11 12 12 12 14 14 15 14 14 14 15
22 22 22 22 22 19 21 21 21 21 19 19 19 17 17 16 15 15 13 13 13 13 13 14 13 11 11 11 12 12 11 9 8 10 10 12 13 13 14 13 13 13 13
19 19 19 19 18 19 19 19 20 16 19 18 18 17 16 15 15 13 12 12 12 11 11 11 11 10 7 8 10 10 8 7 8 6 5 10 11 10 12 11 11 8 11
17 17 16 16 15 15 16 17 17 18 18 17 17 17 16 15 14 14 12 11 10 11 9 9 10 8 7 6 6 7 5 1 5 2 7 6 6 6 8 10 10 10 7
16 15 15 16 15 15 15 15 14 15 15 16 16 16 16 15 15 14 11 10 10 10 8 10 9 7 7 7 6 4 1 0 2 -1 7 8 7 8 8 7 1 10 6

GFSGL_sfc_temp_102.txt.gz
Temp
44 47 50 63 66 66 66 65 64 66 68 65 65 62 62 63 64 63 63 66 65 62 63 62 63 63 61 61 63 67 65 65 55 56 59 59 59 60 63 66 69 69 60
42 45 48 50 56 61 61 62 64 63 65 66 65 62 61 63 64 64 64 64 62 60 61 60 61 61 61 62 62 62 59 61 58 54 56 57 58 60 62 65 70 60 54
40 43 44 44 46 49 59 61 62 65 66 66 65 63 62 66 65 62 62 61 61 61 61 60 61 60 60 59 60 58 58 58 57 56 55 58 59 61 62 58 54 52 48
37 40 40 43 43 43 47 54 60 63 63 64 65 63 62 61 61 61 60 60 60 63 66 64 65 62 60 58 58 58 57 56 56 55 55 55 57 60 54 49 47 50 47
35 35 38 40 40 41 41 42 46 53 59 59 55 53 54 54 48 51 57 60 59 59 52 51 46 44 45 54 58 57 57 55 55 55 54 55 56 55 53 52 47 43 43
35 35 36 36 40 40 39 38 38 39 42 46 46 47 44 41 38 39 47 55 52 51 47 45 43 41 41 41 42 45 53 55 54 54 55 54 54 55 56 52 43 41 37
33 34 33 34 35 36 37 37 34 35 35 37 39 39 38 38 38 39 40 47 43 42 42 43 43 41 40 39 37 36 35 36 42 56 54 54 50 50 50 45 46 44 38
33 32 33 32 33 34 35 34 33 33 32 32 34 36 36 36 36 37 37 39 38 37 37 38 38 38 37 38 36 34 33 33 33 36 38 33 35 38 45 45 41 32 32
32 32 32 31 31 32 31 32 32 33 32 31 32 34 35 35 36 36 37 35 34 34 35 36 35 35 36 37 35 32 31 29 33 34 34 34 34 35 37 38 35 35 30
30 31 32 32 31 31 31 31 31 31 30 30 29 31 33 33 35 35 36 34 32 32 33 33 33 33 34 34 32 31 27 27 28 28 29 28 29 29 31 32 36 34 30
32 32 32 32 32 32 32 32 32 31 30 29 28 28 29 31 32 34 34 32 31 30 30 30 32 32 32 32 31 29 27 28 27 26 26 25 25 25 26 27 28 31 28
32 32 31 32 32 33 32 32 32 32 31 31 29 28 28 28 30 31 31 31 31 29 28 29 30 31 31 31 29 29 29 28 27 25 24 23 23 23 24 25 26 27 29
32 31 32 32 32 33 32 32 34 33 32 32 31 30 29 30 30 30 29 29 28 26 27 28 29 29 29 28 29 29 28 26 25 23 23 23 25 26 27 26 28 28 28
36 34 34 33 33 32 35 35 32 32 33 32 31 31 31 31 31 31 31 31 29 29 28 28 27 27 26 26 26 27 27 26 25 24 23 25 27 27 27 27 26 27 27
37 36 35 35 34 33 30 29 31 30 31 31 30 30 29 27 28 29 30 30 30 29 30 30 29 29 28 27 28 28 29 28 28 28 27 26 26 27 27 29 28 28 25
36 35 34 34 34 35 34 31 29 29 30 30 30 31 29 29 29 29 28 28 28 29 30 29 27 28 27 27 27 27 27 27 28 28 28 28 28 28 27 28 29 28 26
31 33 34 33 33 32 31 30 29 29 27 26 28 29 29 28 28 28 28 28 30 31 29 28 27 27 28 29 28 28 26 27 28 28 27 26 26 26 27 27 26 26 24
30 29 31 31 31 30 30 29 29 28 27 27 25 25 26 26 26 27 28 31 28 29 29 27 26 26 27 27 27 26 26 27 27 27 27 27 27 27 26 26 26 25 25
29 29 30 30 29 29 30 29 29 28 27 27 28 28 26 25 25 26 27 28 26 25 26 26 26 26 26 25 24 24 23 24 25 24 25 25 25 26 25 24 23 22 24
31 27 29 31 30 30 30 29 29 28 27 27 25 24 28 29 26 25 26 26 26 25 25 25 24 24 23 23 23 23 23 23 23 24 23 24 25 25 24 24 24 23 24
31 31 28 31 30 30 29 29 29 28 27 26 24 21 19 26 25 24 24 24 24 24 24 24 23 23 23 22 23 21 22 22 22 22 22 22 22 22 23 23 23 23 23
30 30 30 29 29 28 28 29 27 27 26 25 25 23 20 24 24 23 22 21 21 23 24 23 23 22 21 21 20 20 18 18 19 20 19 20 21 21 22 21 21 21 21
27 27 27 28 27 25 26 26 25 25 24 23 23 23 23 22 21 22 20 19 20 19 20 20 19 18 18 18 19 19 18 16 16 19 19 19 20 20 21 20 19 20 20
25 24 24 24 23 24 23 23 24 21 22 22 22 21 21 21 20 18 18 19 19 18 18 16 16 15 15 16 17 16 15 15 16 14 14 19 17 17 19 18 18 15 17
23 22 22 22 21 21 21 21 21 21 21 21 21 21 21 20 20 19 19 18 16 18 15 15 16 13 12 11 12 12 8 7 10 9 15 14 14 13 15 17 16 16 13
22 21 21 21 20 20 19 19 19 19 19 19 19 19 19 19 19 19 18 17 17 16 14 17 15 10 10 13 11 7 6 6 8 5 14 15 14 15 15 13 7 16 12

GFSGL_sfc_temp_105.txt.gz
Temp
41 42 44 46 49 54 68 72 73 74 73 72 70 67 66 67 64 64 67 64 65 67 67 66 64 66 65 64 62 64 61 60 56 59 64 65 61 60 60 61 62 62 55
40 41 42 44 46 48 51 60 70 71 70 72 68 69 69 66 66 60 59 62 64 66 66 63 62 65 65 65 63 60 60 61 59 56 61 59 60 60 60 59 61 63 55
39 39 40 41 43 44 45 49 61 66 65 64 68 68 68 67 65 63 61 60 64 67 67 64 62 63 61 61 62 60 61 60 60 57 55 59 59 59 58 56 50 47 46
38 37 36 38 40 42 42 44 45 51 62 62 65 66 66 66 67 67 64 62 64 65 64 63 63 62 61 61 60 60 60 59 58 57 56 55 56 58 57 47 46 47 44
35 34 33 35 38 40 40 40 41 40 43 52 59 56 58 57 58 62 62 60 60 61 58 57 50 45 42 44 55 59 58 57 56 55 54 55 55 53 50 50 46 42 42
33 33 35 36 35 36 37 38 37 38 37 39 41 45 44 44 39 41 54 56 54 53 48 47 46 43 43 38 40 42 50 56 55 55 54 54 54 53 51 47 42 39 36
33 33 33 33 33 33 35 35 35 36 36 34 35 37 37 38 38 41 42 46 42 42 43 43 44 43 42 42 38 37 36 36 42 56 54 54 54 54 52 45 44 43 39
33 33 33 33 32 32 32 32 32 33 33 32 32 33 35 36 37 38 38 39 38 37 37 38 38 40 39 40 38 34 33 33 34 37 40 34 37 44 51 49 45 33 34
32 32 32 33 33 33 32 31 31 30 30 30 31 31 32 33 35 36 37 35 34 33 34 35 36 36 35 38 35 32 32 31 33 34 34 34 35 36 40 41 36 36 32
31 31 33 33 33 32 32 32 32 31 29 29 29 29 31 31 33 34 35 34 31 31 32 32 33 33 34 35 34 32 28 27 30 30 29 29 31 32 33 35 39 38 31
33 33 33 34 33 33 33 33 33 32 32 30 29 28 28 29 30 33 33 31 30 30 29 29 31 32 33 32 31 29 27 29 28 27 26 26 26 27 28 30 32 34 31
34 33 33 32 33 34 33 33 33 33 32 32 31 30 31 29 30 30 30 30 30 28 27 29 30 31 31 31 29 30 29 28 27 25 24 23 23 23 25 27 28 30 31
36 33 33 33 33 33 32 31 31 33 32 31 31 29 29 31 31 31 30 29 29 26 27 28 29 30 30 29 29 29 28 27 26 24 23 24 24 26 26 26 26 27 28
38 37 37 36 34 33 33 33 30 29 31 30 29 29 28 28 29 31 32 31 31 31 31 31 29 29 29 28 28 28 27 27 25 24 24 25 27 27 26 26 24 24 23
38 37 38 37 36 34 31 30 29 29 29 27 28 27 26 25 27 29 29 29 30 31 31 32 31 30 29 29 29 29 29 29 28 27 26 25 25 26 26 27 27 26 22
36 37 35 37 37 36 34 31 29 29 29 29 29 29 29 29 29 30 30 30 30 31 31 29 29 29 28 28 27 28 29 28 29 29 29 29 29 28 27 28 28 28 26
33 34 35 34 34 33 33 33 31 29 28 28 28 28 28 28 28 29 31 31 31 33 29 28 27 27 27 27 28 28 27 29 30 30 29 28 28 29 29 28 29 28 27
31 31 32 32 31 31 31 31 31 30 29 29 28 27 27 28 29 29 31 32 29 29 28 27 26 27 28 28 29 28 29 29 29 30 29 29 29 29 28 28 28 28 28
30 30 32 32 31 31 32 31 31 30 30 29 29 29 31 29 30 30 30 29 27 26 27 27 27 26 27 26 26 25 25 26 27 27 28 28 28 28 26 26 25 26 27
33 30 31 33 32 32 32 32 31 30 30 29 26 23 26 31 28 27 27 27 27 27 27 27 26 26 26 26 25 26 26 25 26 26 26 27 27 27 26 25 26 25 26
32 33 31 32 32 31 31 31 31 30 29 28 26 23 21 27 26 26 26 24 25 25 24 26 25 24 24 24 25 24 24 24 24 24 24 24 25 24 26 25 25 24 24
31 31 31 31 31 29 29 31 29 28 28 27 27 26 25 25 25 25 23 22 23 24 24 24 23 22 22 22 22 21 21 21 22 22 22 22 23 23 24 23 23 22 22
29 28 29 29 28 27 28 28 27 26 26 26 26 24 24 23 22 22 21 20 21 20 20 21 20 20 20 20 20 21 20 18 19 21 22 22 23 22 22 21 21 21 20
28 27 26 26 25 25 24 24 25 25 24 24 24 24 23 22 21 21 20 19 19 19 19 18 17 15 17 19 19 18 17 17 18 17 19 21 19 21 21 20 19 17 17
25 24 24 23 22 22 22 22 22 23 23 23 22 23 23 22 22 22 21 20 18 18 17 17 17 15 13 13 12 10 8 8 10 10 18 18 17 17 18 19 18 17 16
24 24 23 23 22 21 21 20 20 21 21 21 21 21 21 21 21 21 21 19 18 18 16 18 17 14 13 15 12 8 7 7 9 8 14 17 17 16 16 15 13 17 15

GFSGL_sfc_temp_108.txt.gz
Temp
41 42 42 42 43 45 46 48 49 53 68 68 67 66 65 64 64 64 65 65 63 62 63 64 63 63 62 63 61 59 58 58 56 57 58 59 59 60 60 61 59 59 56
39 41 40 40 41 43 43 45 48 48 54 67 67 66 65 64 64 63 62 62 62 59 61 61 61 61 62 62 61 61 60 60 58 56 58 58 58 60 60 59 60 61 55
38 38 38 38 38 39 41 42 45 45 48 56 65 64 63 63 62 62 62 62 61 61 59 60 60 60 59 60 60 60 60 59 59 57 56 59 58 59 58 58 50 47 47
37 36 36 36 37 37 39 40 41 43 43 45 54 60 62 63 63 63 61 60 59 59 62 63 62 60 59 61 59 60 59 59 58 57 56 56 57 58 58 49 45 46 43
36 34 34 36 37 36 36 37 38 39 40 40 42 44 46 49 49 55 61 59 59 57 56 53 48 45 42 43 54 58 59 58 57 56 55 55 55 55 49 50 44 41 41
35 34 35 35 35 34 34 34 34 35 36 37 36 38 39 41 38 42 54 59 57 55 48 47 44 44 41 38 39 39 42 54 56 56 56 54 54 55 50 47 41 39 36
33 34 34 34 33 33 33 32 31 31 33 33 34 34 34 35 37 39 42 45 42 41 42 44 43 42 41 42 38 37 36 35 37 53 55 55 55 54 50 45 45 43 37
33 33 33 33 33 33 33 32 30 30 29 29 30 32 33 33 35 35 36 38 36 35 35 36 37 37 37 39 36 34 32 32 34 36 39 36 37 53 50 49 46 35 35
32 32 32 33 32 33 32 32 32 31 29 29 29 29 30 31 34 34 34 34 32 32 33 34 34 34 36 39 35 32 31 31 34 35 35 35 35 39 43 41 37 36 32
32 32 32 33 32 32 32 32 32 32 32 31 29 29 30 29 32 33 32 32 30 30 31 31 33 33 34 34 33 32 28 27 29 30 30 31 32 34 34 38 40 39 32
34 33 33 33 33 32 32 32 32 32 32 31 30 30 30 30 30 32 31 29 29 29 29 29 30 32 33 32 31 29 27 28 27 27 27 27 28 28 29 32 33 37 34
34 34 32 32 32 32 30 30 31 31 30 30 29 28 29 30 32 32 31 30 29 27 26 28 30 32 32 31 30 30 30 28 28 26 25 24 24 24 26 28 30 31 32
35 34 34 32 31 31 29 27 27 28 28 27 27 26 26 27 28 31 32 32 31 29 29 30 31 31 31 29 30 29 28 27 26 25 24 24 25 25 27 27 29 30 29
35 35 35 34 31 30 31 29 27 26 25 25 24 23 24 26 27 28 29 30 31 31 31 30 30 29 29 29 29 28 27 26 25 24 24 25 26 26 26 27 25 27 27
35 33 34 34 34 30 27 27 27 26 27 24 24 24 22 22 26 30 30 29 30 30 30 30 29 28 27 27 27 27 28 28 26 25 25 25 25 25 25 26 25 25 23
32 32 31 32 32 32 32 28 30 30 30 29 29 27 26 29 31 32 32 32 33 32 28 26 25 25 25 25 25 25 26 26 27 27 27 27 26 26 25 26 26 24 23
30 30 30 30 30 29 29 29 27 28 30 30 30 30 30 30 31 32 32 31 31 29 24 24 23 24 23 24 24 24 24 25 27 26 26 25 25 25 25 24 24 24 23
28 29 30 29 29 29 28 27 27 26 24 24 27 28 28 30 30 30 31 30 24 26 24 22 22 23 23 23 23 23 24 24 25 25 25 26 26 26 25 25 25 23 25
29 27 29 29 28 28 28 28 27 26 25 24 21 22 24 29 30 29 28 24 23 22 23 22 22 22 22 23 21 20 20 22 23 24 24 25 24 23 21 22 23 23 24
29 27 26 29 28 27 27 27 26 26 25 23 20 19 22 24 22 21 21 20 21 21 21 22 22 21 20 21 20 21 20 20 21 22 22 22 21 22 20 20 21 21 22
28 28 24 28 27 27 26 26 25 24 23 23 21 18 16 21 20 19 18 18 18 19 19 20 19 18 18 19 20 19 19 19 19 19 20 19 20 19 20 20 19 20 21
27 27 27 26 26 24 25 25 24 23 23 22 22 22 18 19 19 18 17 16 17 17 17 18 18 16 15 16 16 15 15 16 16 16 15 16 18 18 19 18 17 16 18
26 24 25 25 24 22 22 22 22 22 21 21 22 21 20 18 16 15 15 14 16 14 14 13 12 13 14 13 12 14 12 11 10 11 13 13 16 15 15 15 16 16 13
24 23 23 22 21 21 20 19 20 19 20 20 20 20 19 19 17 17 14 10 10 13 8 9 8 6 7 10 11 8 7 7 10 10 11 13 11 15 15 14 13 11 11
22 21 20 20 19 18 18 18 18 18 18 18 18 18 19 19 18 18 18 13 9 8 12 9 6 11 4 2 2 1 -2 -0 -2 1 9 12 9 10 9 12 10 11 8
22 21 20 20 19 18 18 16 17 16 16 16 16 17 18 16 16 17 17 17 11 8 7 9 7 5 5 8 2 -0 -2 -2 -2 0 3 7 7 6 6 6 7 9 8

GFSGL_sfc_temp_111.txt.gz
Temp
38 39 39 39 40 41 41 43 43 45 48 50 53 62 64 65 65 63 62 61 61 60 61 61 61 63 61 61 61 60 57 57 56 53 55 56 60 61 61 61 61 61 57
39 38 38 39 39 39 39 41 42 43 45 47 51 57 64 65 66 62 61 62 62 61 62 62 62 61 60 60 60 59 59 58 58 55 56 57 58 61 61 59 59 60 59
38 37 37 37 37 37 37 38 39 40 42 43 46 48 53 63 64 63 63 63 63 62 61 60 59 59 59 60 59 59 59 59 59 56 55 58 58 59 59 58 53 49 49
36 36 35 36 36 36 36 36 36 38 38 40 41 43 45 45 47 51 61 60 58 58 58 58 58 59 60 60 59 59 59 58 58 57 57 56 58 58 58 50 46 46 44
35 35 34 36 36 36 35 34 34 34 35 37 38 39 39 39 39 41 47 58 56 55 54 51 50 48 47 51 58 58 58 58 57 57 56 55 55 55 54 52 46 41 40
34 33 34 35 35 35 35 33 32 32 32 33 34 35 35 37 37 37 41 57 55 52 47 45 45 42 40 41 41 39 43 57 56 56 56 54 55 56 52 49 41 40 38
33 33 34 34 34 33 34 34 32 30 31 30 31 32 32 34 36 35 36 41 44 43 42 43 42 42 42 39 37 36 35 35 36 44 54 56 55 56 52 48 45 46 39
32 32 33 32 32 33 33 32 32 32 30 29 29 30 31 32 34 34 33 33 33 33 34 35 36 36 38 40 37 34 32 33 33 34 35 34 37 52 53 51 48 37 36
31 31 31 31 30 31 30 31 32 31 30 29 30 30 30 30 33 34 34 31 31 30 32 33 33 33 36 39 35 32 31 30 34 35 35 34 35 39 45 42 37 37 32
32 31 32 32 30 29 29 29 30 30 29 29 28 28 31 30 33 32 31 30 28 29 30 31 33 32 34 34 32 31 28 27 28 30 30 31 31 32 34 36 40 40 32
33 32 31 31 30 28 28 28 28 29 28 28 27 28 28 30 31 33 32 28 27 28 28 29 30 32 33 32 31 29 27 28 28 28 27 27 28 28 29 32 33 39 36
32 32 30 30 30 29 27 27 27 26 26 24 25 25 27 28 31 32 33 32 31 28 28 29 30 32 32 31 30 30 30 28 27 26 25 24 24 25 27 29 31 32 33
32 31 29 29 28 28 26 25 25 25 23 24 23 22 23 26 28 32 32 32 32 30 30 30 31 31 31 29 30 29 28 27 26 25 24 24 25 27 28 29 30 31 30
31 30 31 30 27 27 27 26 25 23 23 22 22 22 23 25 27 29 29 30 30 30 30 29 29 28 28 28 28 28 27 26 25 24 24 25 27 26 25 27 27 28 27
30 29 29 29 29 27 26 25 25 26 27 24 23 23 23 24 27 31 30 28 28 28 28 27 26 26 25 25 26 26 27 27 26 26 25 25 25 25 25 26 27 27 25
28 28 28 27 27 28 27 23 30 30 30 30 30 28 23 30 31 32 31 31 30 29 24 22 22 23 23 23 23 24 25 25 26 26 26 26 25 25 25 25 25 25 23
25 27 27 27 27 26 25 25 21 24 29 29 29 29 30 30 30 30 30 29 29 26 21 20 20 20 20 21 22 23 23 25 26 25 25 25 25 24 24 23 24 24 23
21 22 23 21 21 22 20 19 18 16 15 17 23 26 28 29 28 27 27 25 21 23 21 19 19 20 21 21 21 21 22 23 23 24 24 24 23 24 23 22 22 22 22
20 19 18 19 19 19 21 18 18 17 11 8 12 17 19 26 25 24 23 18 17 18 19 19 19 19 19 20 19 20 20 20 20 21 21 21 20 21 21 22 22 21 21
19 20 19 21 20 20 21 21 20 19 16 11 12 10 15 18 16 14 14 14 14 15 16 17 17 16 16 17 17 17 18 18 18 19 18 18 16 18 18 18 19 20 19
19 21 17 21 20 20 20 19 20 18 17 17 10 8 11 15 11 12 12 12 12 11 11 14 14 13 13 13 14 14 14 13 14 15 17 18 17 16 18 18 18 20 20
21 21 22 20 20 18 18 20 18 18 18 17 18 14 10 7 9 8 8 2 2 7 9 9 10 10 9 9 10 9 9 8 9 9 11 13 15 16 15 14 14 15 17
18 16 18 19 17 14 13 16 13 10 12 12 14 18 17 13 8 9 4 -2 3 1 2 2 -2 2 6 7 3 3 2 3 6 9 9 12 11 11 14 14 13 12 11
16 12 16 13 9 11 3 1 3 9 9 6 3 6 8 14 11 9 6 -0 -3 -3 -5 -2 -2 -2 -2 -5 -6 -2 1 -4 0 5 5 7 11 12 11 10 10 8 7
10 6 7 9 4 3 2 3 0 -1 0 0 -1 -0 4 6 5 3 13 10 2 -4 -2 -2 -2 -3 -6 -7 -7 -6 -8 -6 -4 -0 1 5 7 9 7 8 6 8 6
12 11 9 9 9 13 11 13 13 12 9 -0 -2 -1 -1 0 1 -1 -0 3 6 2 -2 2 -1 -1 -2 -4 -3 -4 -7 -6 -4 0 1 3 -0 0 -1 4 5 4 7

GFSGL_sfc_temp_114.txt.gz
Temp
38 38 38 38 39 39 39 39 39 40 42 43 44 46 50 52 58 57 59 61 61 61 59 59 62 63 61 60 60 60 59 57 55 53 54 56 59 60 60 60 61 60 57
38 37 37 38 38 37 37 37 38 38 40 41 43 44 46 47 51 60 59 62 60 60 60 58 59 60 61 60 60 59 59 59 57 52 54 55 58 60 61 59 60 61 60
37 37 36 36 36 36 36 36 36 36 37 38 40 41 41 43 44 48 58 60 60 60 61 59 59 59 57 58 58 58 59 59 60 57 54 57 57 59 59 58 58 56 53
36 35 35 35 36 36 36 35 35 35 35 35 37 38 38 40 40 41 46 53 58 61 62 61 61 60 59 59 59 58 59 59 58 57 54 56 57 57 58 53 48 48 46
34 34 34 35 36 36 35 35 35 34 34 34 34 35 35 38 38 37 44 49 51 58 57 56 56 57 52 54 59 60 59 58 57 57 55 56 56 55 55 53 51 42 41
33 33 33 34 34 34 34 34 33 33 33 33 32 33 33 35 36 36 39 38 37 43 49 46 45 44 42 41 41 43 54 57 56 56 56 55 56 56 56 52 42 41 42
32 32 33 32 31 31 32 33 31 30 30 30 30 31 32 33 35 35 35 34 34 33 34 38 41 41 41 39 38 38 36 36 40 54 56 55 55 56 53 49 46 44 43
30 30 31 30 30 30 30 30 29 30 29 28 28 30 31 32 33 34 34 34 32 31 32 32 34 34 37 39 38 35 33 33 34 35 36 34 34 39 49 53 50 38 35
30 29 30 29 27 28 27 27 29 28 28 27 28 28 29 30 34 33 31 31 31 30 31 32 32 32 34 36 35 33 32 30 34 35 34 34 34 36 40 44 39 39 32
31 30 30 30 27 25 25 26 26 27 25 26 26 27 30 29 33 34 32 29 28 29 30 30 32 32 33 33 31 31 29 27 29 30 29 30 31 32 34 35 42 42 33
32 30 29 29 28 27 26 26 25 25 25 25 25 26 27 29 30 34 33 30 28 28 28 28 30 32 32 32 32 29 28 28 28 28 27 27 28 29 30 32 33 37 34
30 30 28 28 28 28 25 25 25 24 23 23 24 25 27 28 31 32 33 32 32 28 27 28 29 31 31 31 29 30 30 28 28 26 26 25 25 26 28 29 31 32 33
29 28 27 26 26 26 25 25 25 25 24 23 23 23 25 27 28 31 31 31 30 28 29 30 30 30 30 29 30 29 27 26 26 25 24 24 25 26 28 29 31 31 30
28 28 28 28 26 26 26 26 25 24 23 23 23 22 24 26 26 27 27 27 27 26 26 26 27 28 27 27 27 28 28 27 26 25 25 25 26 26 26 28 27 28 28
29 28 27 28 26 26 26 26 26 25 26 23 24 24 23 22 25 29 28 25 25 25 24 24 23 23 23 24 25 25 26 26 25 26 25 25 25 26 25 26 27 27 25
27 27 26 26 26 26 26 25 29 29 29 29 30 28 25 28 29 29 29 28 28 26 21 19 19 19 19 20 21 23 24 25 25 25 25 25 24 24 24 25 26 25 24
24 26 25 25 24 23 22 21 18 21 27 27 28 28 28 27 26 26 26 25 26 24 18 17 17 18 19 20 20 21 21 23 25 24 24 24 24 24 23 23 24 25 23
18 19 18 18 17 17 15 15 12 13 12 13 19 24 26 25 25 24 23 20 15 18 16 15 14 16 17 18 19 19 20 21 21 21 21 22 22 23 23 22 23 22 22
17 13 12 13 16 15 17 16 14 10 6 5 7 13 13 23 22 21 20 12 10 11 14 13 13 13 14 15 15 16 17 17 17 18 19 19 19 21 20 22 22 21 21
18 18 17 17 17 17 17 17 18 16 15 15 11 9 12 13 7 6 8 2 8 9 11 12 11 10 10 11 11 12 12 12 12 14 16 17 17 18 17 19 20 19 19
17 18 14 17 16 16 16 16 16 15 14 15 16 15 10 11 6 5 7 4 4 7 5 8 7 6 7 7 9 7 7 6 7 9 11 14 14 15 17 17 18 19 19
17 18 19 16 17 14 15 16 13 12 13 12 12 14 11 12 9 6 4 -1 -2 3 5 1 2 4 7 2 1 -4 0 2 4 6 8 10 12 11 12 14 14 14 17
16 13 15 16 14 11 9 11 7 4 5 2 6 9 9 5 7 7 5 -4 -1 -2 -2 -3 -6 -3 -2 -8 -7 -6 -5 -4 -2 4 5 7 11 10 9 10 10 10 10
13 10 14 12 11 11 7 7 9 10 9 4 -5 -3 -2 -1 -4 -3 -1 -3 -5 -9 -10 -8 -5 -4 -4 -10 -13 -6 -2 -7 -4 3 3 4 9 10 7 9 8 5 7
8 6 6 5 1 1 1 5 7 6 7 7 7 5 2 -2 -2 -5 -6 -1 -1 -8 -5 -7 -6 -6 -7 -8 -8 -8 -11 -7 -5 -1 4 4 5 4 5 6 5 8 6
8 7 5 4 3 2 0 -1 -1 0 3 6 6 7 7 7 7 -1 -2 -4 -2 -3 -4 -5 -5 -2 -6 -5 -4 -4 -8 -8 -7 -6 -5 2 1 1 1 -3 -1 2 4

GFSGL_sfc_temp_120.txt.gz
Temp
37 38 37 37 38 38 37 37 37 37 37 37 38 39 39 39 40 40 41 43 43 46 55 56 59 61 60 60 60 60 60 59 57 58 58 59 59 59 59 59 60 60 58
37 36 36 36 37 36 35 35 35 35 37 37 37 38 38 38 38 38 38 39 41 43 47 55 57 60 59 60 59 59 59 60 59 57 55 55 58 58 60 58 60 60 60
36 35 34 34 34 34 34 34 34 34 35 35 36 36 37 37 37 37 38 39 40 43 45 49 57 59 58 59 59 59 59 59 59 59 56 56 57 58 58 58 58 58 58
34 33 32 32 32 33 33 33 32 33 32 33 34 35 36 36 36 36 37 37 37 39 40 41 43 41 43 53 58 59 60 58 58 57 58 56 55 57 58 56 54 54 53
31 30 29 31 31 31 31 30 31 30 30 31 31 33 34 35 35 34 35 35 35 35 36 38 40 40 39 39 47 58 59 58 58 57 56 56 55 55 55 56 55 49 46
30 29 29 29 29 28 28 28 27 27 28 29 29 30 31 34 34 35 34 33 33 33 32 33 36 37 36 38 38 40 43 58 57 56 57 55 56 57 56 56 48 46 47
30 30 29 28 27 26 26 25 24 24 25 27 28 28 29 31 34 34 34 32 31 30 30 31 33 34 34 36 38 36 35 35 35 45 55 57 57 58 57 55 51 53 52
29 28 28 27 26 25 24 22 22 22 22 24 26 27 27 29 34 33 32 30 30 29 29 30 30 31 32 33 35 35 33 33 33 34 34 34 38 57 59 57 54 46 36
28 27 27 26 23 23 21 20 21 21 22 23 26 25 25 26 33 33 29 28 27 28 29 29 30 30 32 33 31 31 32 31 33 35 34 35 34 35 40 50 43 44 33
26 26 27 27 24 22 21 21 22 15 21 23 23 25 28 25 31 32 29 26 24 26 27 28 31 30 31 32 28 28 27 26 29 32 33 33 33 33 34 34 46 47 34
28 28 27 26 26 24 22 21 21 19 21 21 21 22 24 26 26 31 31 24 23 24 24 24 26 30 30 31 30 28 27 28 28 29 30 31 31 29 30 32 32 35 35
26 27 25 25 26 25 21 22 22 23 21 19 19 19 21 23 28 28 29 28 26 22 22 23 25 29 29 29 28 29 29 28 27 27 27 26 26 28 28 30 31 32 33
27 24 25 26 25 24 22 20 21 22 21 19 18 17 18 21 22 27 27 26 25 20 22 24 25 26 26 25 27 27 26 25 25 24 24 24 26 27 29 29 31 32 32
27 26 26 25 24 24 24 24 22 21 20 19 17 16 17 18 20 22 22 21 21 19 19 19 19 22 21 21 22 22 23 23 23 23 23 25 26 26 26 28 27 28 28
26 26 24 24 24 22 21 22 22 22 23 20 18 17 17 16 19 23 22 19 18 18 16 15 14 14 15 16 17 18 19 20 20 21 22 23 24 25 25 27 26 27 25
24 23 22 22 21 21 20 19 25 26 26 26 26 23 18 24 24 24 23 22 21 20 13 10 9 10 11 12 12 13 15 15 16 19 20 21 22 23 24 25 25 24 24
21 22 20 20 19 17 16 15 11 16 22 24 24 24 25 24 23 22 21 19 20 16 9 8 7 7 9 10 10 11 11 13 15 15 17 17 19 22 23 22 23 24 23
12 13 11 11 10 9 2 2 0 3 1 6 14 20 22 22 22 21 19 16 10 11 9 7 6 7 8 8 8 8 9 10 10 12 13 14 15 18 21 21 21 21 22
7 4 4 6 6 5 7 7 6 6 6 7 8 12 10 20 19 18 15 4 6 6 8 8 7 6 6 6 4 3 4 5 6 7 9 11 13 15 17 20 20 20 20
9 12 11 11 11 11 10 10 11 10 10 8 9 9 11 10 4 4 1 -3 3 6 5 7 7 5 4 3 2 0 3 2 3 5 6 8 10 13 15 16 18 19 20
12 14 11 14 12 12 11 11 11 10 9 9 8 4 7 9 7 5 5 3 2 5 3 3 4 2 2 2 2 -1 1 1 2 2 3 6 8 10 12 14 16 18 20
13 15 15 13 13 9 11 11 8 7 7 5 5 7 5 5 5 6 6 3 -1 2 4 2 1 2 2 -1 -3 -6 -1 -1 0 1 1 4 8 10 10 10 11 13 15
12 10 11 10 10 5 3 5 3 2 2 1 3 4 5 5 4 3 2 1 3 2 0 -1 -2 1 2 -3 -6 -4 -3 -2 -1 -1 1 3 6 8 9 9 9 9 9
9 6 9 6 1 1 -6 -8 -5 -3 -1 -3 -6 -1 -0 2 2 2 3 3 4 4 4 -0 1 1 2 1 -2 -3 -0 -3 -1 -1 -4 2 5 6 6 8 8 6 7
2 -1 -2 -4 -8 -13 -13 -11 -14 -15 -13 -12 -9 -5 -3 -2 -2 -3 -2 -0 1 2 2 2 1 1 2 2 2 2 -5 -7 -6 -8 -3 -0 0 3 4 4 2 5 4
2 0 -4 -5 -10 -12 -17 -21 -22 -23 -20 -17 -16 -15 -14 -10 -7 -9 -7 -5 -5 -4 -3 -0 0 -0 -0 2 4 6 -2 -7 -6 -8 -9 -2 -3 -1 0 2 1 2 2

GFSGL_sfc_temp_123.txt.gz
Temp
38 38 37 37 38 38 37 37 37 38 38 38 38 39 39 39 40 39 40 42 42 44 46 47 49 55 58 60 61 61 60 60 57 64 71 72 70 69 67 63 63 63 63
37 37 36 37 37 36 36 36 36 35 36 36 37 37 38 38 39 38 39 40 39 40 42 43 45 46 52 60 61 60 59 60 58 57 64 67 67 66 67 63 62 61 62
36 35 35 35 35 35 35 36 36 35 35 35 35 35 36 36 37 38 38 37 38 38 38 39 40 40 39 41 43 58 61 60 60 59 60 65 63 63 61 61 60 59 60
36 34 33 34 34 34 36 35 35 35 34 34 34 34 35 36 36 37 38 37 37 37 37 37 37 36 36 36 40 44 50 58 59 60 58 56 57 59 59 58 57 59 58
34 33 32 34 34 34 33 34 34 34 34 34 33 33 34 34 34 35 36 36 36 35 36 36 36 36 36 36 39 39 40 43 58 58 56 57 57 56 56 59 57 57 55
34 33 33 33 32 31 32 32 33 32 33 33 32 32 32 34 34 34 34 34 35 34 34 34 36 35 35 35 36 37 36 34 35 55 57 56 57 58 59 57 56 51 50
33 32 31 30 29 29 30 30 29 29 29 29 30 30 31 33 34 33 33 33 32 32 31 32 32 34 33 34 34 35 35 34 34 34 38 49 50 58 62 57 56 56 54
31 30 30 29 28 28 27 27 27 28 27 27 27 28 29 31 33 32 31 31 31 31 30 31 31 32 32 32 31 31 31 31 31 33 33 33 33 35 37 57 59 51 40
29 29 29 28 26 26 24 26 27 27 26 26 26 26 27 28 32 31 29 30 29 29 30 30 30 30 32 32 30 28 28 29 32 33 33 34 34 35 35 42 49 47 35
28 29 30 29 26 24 25 26 27 27 26 27 25 25 26 27 30 30 29 28 25 27 28 28 29 29 31 31 28 27 27 27 28 29 30 31 32 32 33 32 33 40 38
30 30 29 30 27 26 26 27 27 25 24 24 24 25 24 26 27 29 28 26 24 25 25 25 27 28 29 29 29 26 25 28 28 28 28 28 29 29 30 32 32 32 33
30 29 28 28 28 27 25 26 26 25 23 22 23 23 25 25 26 26 27 25 24 23 22 24 25 26 26 26 26 27 26 26 26 26 26 25 26 27 29 30 32 32 32
30 27 28 27 27 27 26 25 26 25 23 22 22 21 22 24 25 25 25 24 22 20 22 22 22 23 23 22 24 24 22 22 23 22 23 25 27 28 29 29 31 32 32
30 29 29 28 27 27 29 28 27 25 24 22 21 21 21 22 23 24 24 23 20 19 19 20 19 20 19 19 19 20 20 19 20 21 21 23 27 28 28 28 27 28 29
29 29 28 28 27 26 25 26 26 25 25 24 22 22 20 20 21 23 22 21 20 18 18 18 16 16 16 16 16 17 18 18 17 19 20 21 22 26 27 28 28 28 25
28 27 26 26 26 26 25 24 25 25 25 25 26 25 23 24 23 23 22 21 20 19 16 14 13 13 13 14 13 14 15 15 16 18 18 20 20 22 25 27 26 26 26
25 25 25 24 24 23 22 21 20 22 22 23 23 24 24 23 22 21 20 19 19 18 15 13 12 12 13 13 13 13 13 14 15 16 17 17 18 20 22 25 25 25 24
19 18 22 22 22 20 20 19 18 17 16 18 21 21 22 22 21 20 19 20 17 17 16 14 13 13 13 13 12 12 12 12 13 13 15 15 16 18 19 22 24 24 25
21 20 20 20 20 20 20 20 20 19 18 18 20 19 19 20 20 20 19 17 15 15 16 16 15 14 14 14 12 12 12 11 11 11 12 13 15 18 18 19 21 22 24
20 18 20 22 21 20 20 19 18 18 17 17 16 14 17 20 17 16 17 16 16 16 16 16 16 15 14 13 13 12 12 12 11 11 11 12 13 17 17 18 20 20 23
22 22 18 21 19 19 18 17 16 15 15 15 14 11 10 15 14 14 14 12 12 14 13 15 15 15 14 13 13 12 11 11 11 10 11 12 12 14 17 18 19 20 21
22 21 20 18 18 16 16 15 14 13 12 11 13 13 10 13 12 11 11 10 11 12 12 11 13 13 13 12 10 10 10 10 10 9 9 10 13 14 15 17 18 18 19
19 18 17 16 15 11 11 12 11 10 9 9 9 9 9 9 8 8 8 8 9 9 10 9 9 9 10 10 12 11 10 9 9 9 8 9 11 11 13 14 15 16 16
17 16 15 13 11 10 9 7 7 5 5 6 6 6 5 6 5 4 4 4 5 6 6 6 7 6 6 7 10 11 12 10 10 10 7 9 10 10 11 12 14 13 15
13 11 10 9 8 6 6 5 4 3 3 2 2 3 3 3 2 2 1 1 0 1 1 2 3 3 3 3 6 6 7 6 6 3 9 10 9 9 9 10 11 13 13
11 10 8 8 6 6 4 3 1 0 -1 -0 -0 0 -0 -0 -0 -1 -2 -2 -3 -2 -2 -0 0 -1 -1 3 4 2 4 6 6 3 6 10 9 9 8 8 9 11 12

GFSGL_sfc_temp_126.txt.gz
Temp
41 42 41 41 41 41 41 40 40 41 40 39 39 40 40 40 41 41 41 41 40 41 42 42 45 44 44 46 52 59 64 61 60 68 73 75 74 75 78 76 73 74 74
41 41 40 40 41 41 40 40 40 40 41 40 40 39 40 40 40 39 39 39 38 37 38 39 38 41 39 41 42 45 49 61 61 58 64 69 69 72 73 71 71 70 73
42 41 41 41 41 40 40 40 40 41 40 39 39 38 39 39 39 39 39 38 38 38 37 37 36 37 36 37 39 43 45 48 51 58 59 62 63 66 68 70 67 69 66
42 41 40 41 41 41 41 41 41 41 40 39 39 39 39 39 38 38 40 39 38 38 37 37 36 35 35 35 38 39 40 41 45 48 59 63 62 64 68 66 60 61 61
41 39 38 40 40 40 39 39 40 41 41 41 41 41 41 39 37 36 39 39 38 36 37 37 37 36 36 36 36 36 35 35 38 40 45 52 60 57 58 60 58 61 59
39 38 38 38 39 37 38 38 39 38 38 38 38 39 39 39 33 33 36 37 36 35 34 35 36 35 35 35 35 35 34 32 32 34 36 36 39 38 53 58 57 56 53
38 37 36 35 34 34 35 36 35 35 36 33 34 35 35 35 33 32 34 35 34 33 32 32 34 35 34 36 35 33 33 33 32 32 32 32 32 34 34 37 52 58 57
36 34 35 34 32 32 32 30 31 31 30 30 30 31 32 32 31 31 33 34 32 32 31 31 31 31 32 33 35 33 32 31 31 32 31 31 32 34 34 35 37 41 52
33 32 31 31 29 30 29 30 30 30 30 29 29 29 29 29 30 30 31 33 31 31 31 31 30 29 30 31 30 30 30 31 33 34 33 33 33 33 34 34 33 36 41
32 32 34 31 29 28 29 29 30 30 29 31 29 29 28 28 29 29 29 30 30 31 30 30 28 28 29 29 28 27 25 28 30 31 32 32 32 31 32 31 31 31 34
33 32 31 33 30 30 30 30 30 29 29 29 29 29 28 28 28 28 27 27 28 28 28 27 27 26 27 27 27 26 25 29 29 30 30 30 31 31 30 30 31 30 30
33 31 29 30 31 31 30 30 30 30 29 28 28 29 29 29 28 27 27 25 25 26 24 25 25 25 26 25 26 25 26 27 29 29 29 27 26 28 30 31 31 31 32
32 29 29 30 30 32 31 30 31 30 29 28 28 27 27 28 28 27 26 25 24 24 24 23 24 24 24 24 24 24 24 25 26 25 24 24 25 28 30 31 32 32 32
35 34 34 32 32 33 34 33 31 29 29 28 27 26 26 26 25 25 26 26 24 24 24 24 23 24 22 23 24 24 24 24 23 23 23 25 26 27 28 30 29 30 31
35 34 34 33 32 31 29 29 30 27 27 27 26 26 23 22 22 23 23 22 22 23 24 23 22 22 21 21 22 22 23 22 21 23 22 23 23 24 26 28 30 30 28
34 34 32 33 32 32 32 29 25 25 25 25 25 25 26 24 23 23 23 23 23 23 23 21 20 20 19 20 20 20 21 20 20 21 22 22 21 22 24 27 27 28 29
33 32 30 30 31 29 29 29 27 25 23 23 24 24 24 23 23 23 23 24 23 25 22 21 19 19 20 21 20 20 19 20 21 20 21 21 21 21 23 24 26 26 25
25 26 29 28 28 27 26 25 25 24 23 24 23 23 23 23 23 23 23 25 24 24 23 21 20 20 21 21 20 20 20 20 19 19 19 19 19 21 22 23 24 23 25
27 26 26 26 26 25 27 27 26 25 25 24 25 23 23 23 23 23 23 22 21 21 22 22 22 21 21 21 19 19 18 18 17 17 17 18 18 20 20 21 23 22 24
25 23 26 28 27 27 27 25 25 24 23 23 22 18 21 24 21 20 20 19 19 20 20 20 21 20 20 19 18 18 18 18 17 17 16 17 17 19 19 20 21 22 23
29 26 23 27 26 26 25 23 23 23 21 22 21 16 14 20 19 19 18 17 17 17 16 17 17 17 17 17 18 17 16 17 16 16 15 16 16 17 18 19 20 21 22
28 27 26 24 24 22 23 23 21 21 20 19 19 18 14 18 17 16 16 14 15 16 16 15 15 15 15 13 14 14 14 14 14 15 14 14 16 16 16 17 17 18 20
27 24 24 23 22 18 19 20 18 18 17 17 17 16 15 14 14 13 12 12 12 12 13 12 12 11 12 11 12 13 12 12 12 13 12 13 14 15 15 15 15 16 16
24 23 21 20 19 18 17 16 16 13 13 14 14 13 12 12 11 10 9 9 8 9 9 8 9 8 6 6 10 11 11 10 12 12 11 12 14 14 14 13 14 14 15
21 20 19 18 16 16 16 15 14 13 13 12 11 11 11 10 9 8 8 7 5 5 6 6 6 5 5 4 7 5 5 4 8 10 12 12 13 13 12 12 12 14 14
19 18 18 17 16 16 15 14 12 12 10 10 10 9 8 8 7 6 5 4 2 3 4 5 5 3 3 7 6 3 3 4 6 7 11 12 12 12 12 10 11 12 13

GFSGL_sfc_temp_129.txt.gz
Temp
44 44 44 44 44 44 43 42 42 42 41 41 41 42 42 42 42 41 41 40 39 39 39 39 38 39 39 41 41 42 44 47 51 60 68 72 69 72 76 73 68 72 72
45 44 44 45 45 44 42 42 42 40 40 40 41 42 42 41 41 41 40 39 38 37 37 37 36 38 37 38 38 41 42 44 45 45 58 65 64 71 72 72 73 75 75
47 47 47 46 46 45 45 45 44 44 43 42 43 42 41 40 40 42 42 41 39 38 37 36 35 35 35 35 37 37 39 40 42 43 46 55 62 67 68 69 69 70 72
46 46 44 44 44 44 44 44 44 44 43 43 44 43 43 40 37 38 41 40 40 39 39 39 37 35 35 35 35 34 35 35 38 39 44 46 48 50 55 61 62 68 68
45 43 42 44 44 43 42 42 43 42 42 42 42 42 42 39 36 35 40 40 38 38 38 38 38 36 36 37 35 33 33 32 33 34 36 36 38 36 38 38 40 43 61
43 42 42 42 42 40 40 40 40 40 39 39 39 39 37 38 33 34 37 37 36 35 34 35 37 35 35 36 37 35 33 31 31 31 32 30 31 32 34 34 36 38 43
42 41 40 38 37 36 37 37 36 35 36 34 34 36 34 33 31 33 35 37 36 34 33 32 34 34 33 35 36 36 35 34 33 33 31 30 30 31 32 31 33 34 36
40 38 38 37 35 36 34 32 32 33 31 31 31 31 33 31 31 31 34 36 34 33 32 30 29 29 30 31 33 32 32 32 33 33 32 32 32 32 33 33 34 34 38
36 34 34 33 31 32 30 31 31 32 31 31 31 30 29 29 30 29 32 34 32 31 32 30 28 27 29 30 28 27 28 30 33 35 35 34 33 34 34 34 31 31 30
35 35 35 33 31 30 31 31 31 31 31 33 31 31 30 28 30 29 28 29 30 30 31 30 28 27 28 28 26 25 23 26 30 31 32 33 33 33 34 32 32 30 29
35 35 34 35 32 32 32 32 31 31 31 31 31 31 30 29 28 29 28 26 27 28 27 26 27 27 28 28 27 25 24 28 29 30 31 31 31 31 32 32 32 32 30
35 32 31 33 34 34 32 32 32 32 31 31 31 31 31 29 29 28 28 27 26 26 25 25 26 27 27 27 27 27 26 27 28 27 27 27 27 27 30 31 32 32 33
32 30 31 33 33 35 33 32 33 32 31 30 30 29 28 28 27 27 27 27 26 26 27 26 27 27 27 26 27 26 25 25 24 24 24 25 26 27 31 31 32 33 33
38 36 36 35 34 36 36 34 31 30 30 29 28 26 26 25 24 25 25 26 26 26 27 27 27 27 26 25 25 26 25 24 23 23 24 25 27 27 27 30 28 29 29
38 37 36 36 35 31 29 29 30 26 26 26 25 26 23 21 22 25 25 24 25 25 27 26 25 24 24 24 24 23 24 23 21 22 23 23 23 24 26 29 28 28 25
37 37 36 36 35 36 34 28 26 26 25 25 25 25 25 25 25 25 26 26 26 27 26 24 23 23 22 23 22 22 23 22 22 22 22 22 21 21 23 26 27 25 24
37 35 33 34 33 32 32 31 29 24 24 24 25 25 24 24 25 25 25 27 27 27 24 23 22 22 23 23 23 22 21 22 22 21 21 20 20 20 22 23 23 24 23
29 30 32 31 30 29 29 28 28 27 26 25 23 25 24 25 25 25 25 26 25 25 24 23 22 22 22 22 21 20 20 21 20 20 19 19 18 19 20 20 21 20 22
29 29 29 29 28 28 29 29 28 28 27 27 27 25 24 25 25 25 24 22 21 21 21 21 21 21 20 20 19 19 19 19 19 18 18 17 17 18 18 19 20 19 20
28 27 29 30 29 29 29 28 28 27 26 26 25 20 21 25 22 22 22 20 19 20 19 19 20 19 18 17 18 17 18 17 17 17 16 16 16 17 17 16 17 17 19
29 28 26 29 28 28 27 26 26 25 24 24 24 17 15 20 20 20 20 18 17 17 17 17 17 17 16 15 15 15 15 15 15 15 15 15 15 15 17 17 17 18 18
31 29 29 27 27 25 25 25 24 23 22 21 21 20 17 20 19 18 18 16 15 16 16 15 14 15 14 12 11 11 12 12 12 12 12 13 14 15 15 15 15 15 16
29 27 27 26 24 20 22 22 21 21 20 20 20 20 19 17 16 16 15 14 13 13 13 12 11 11 11 10 10 11 9 8 8 9 9 11 12 14 14 14 14 13 13
27 26 25 23 22 22 21 20 20 16 17 18 18 17 16 15 15 13 13 12 10 10 10 9 10 9 7 7 9 10 8 7 8 8 9 9 11 12 13 13 13 12 12
25 24 23 22 20 20 19 20 19 19 18 17 16 16 15 14 13 12 12 10 7 7 8 8 8 8 7 5 8 5 5 5 6 6 8 9 10 11 12 12 11 11 11
23 22 21 21 20 20 20 19 18 17 16 15 15 14 13 13 11 10 9 7 5 5 7 7 7 6 6 7 7 4 4 4 4 6 8 10 11 11 12 10 10 11 11